JAL726 WIII-RJAA

Flight info

Callsign JAL726
Flight time 8h 50m
Altitude 35000
Route AMBOY P648 VJN M646 RUMEG/N0495F370 M646 PR DCT JOM A590 AVLAS/N0489F390 A590 BUBDO Y83 MOE Y81 RUTAS
Aircraft B744/H-SDE3FGHIM1M2RWXY/LB1

Departure

Time 2026-05-05 19:10
Airport Soekarno-Hatta International Airport (WIII)

Arrival

Time 2026-05-06 04:00
Airport Narita International Airport (RJAA)
Time Latitude Longitude Altitude Speed Heading
2026-05-05 17:48 -6.11874 106.66160 47 ft 0 kts 158°
2026-05-05 18:51 -6.11859 106.66153 47 ft 4 kts 158°
2026-05-05 18:51 -6.11834 106.66143 47 ft 4 kts 158°
2026-05-05 18:51 -6.11812 106.66134 47 ft 4 kts 165°
2026-05-05 18:51 -6.11788 106.66131 47 ft 4 kts 195°
2026-05-05 18:52 -6.11770 106.66139 47 ft 4 kts 238°
2026-05-05 18:52 -6.11760 106.66163 47 ft 4 kts 253°
2026-05-05 18:52 -6.11754 106.66180 47 ft 1 kts 248°
2026-05-05 18:52 -6.11753 106.66183 47 ft 0 kts 248°
2026-05-05 18:59 -6.11761 106.66163 47 ft 8 kts 248°
2026-05-05 19:00 -6.11789 106.66087 47 ft 13 kts 261°
2026-05-05 19:00 -6.11746 106.66007 47 ft 16 kts 328°
2026-05-05 19:00 -6.11635 106.65962 47 ft 17 kts 339°
2026-05-05 19:00 -6.11534 106.65906 47 ft 16 kts 309°
2026-05-05 19:01 -6.11531 106.65801 47 ft 15 kts 248°
2026-05-05 19:01 -6.11571 106.65706 47 ft 14 kts 247°
2026-05-05 19:01 -6.11608 106.65617 47 ft 13 kts 247°
2026-05-05 19:01 -6.11642 106.65533 47 ft 13 kts 249°
2026-05-05 19:02 -6.11673 106.65452 47 ft 12 kts 249°
2026-05-05 19:02 -6.11703 106.65373 47 ft 12 kts 249°
2026-05-05 19:02 -6.11731 106.65299 47 ft 11 kts 249°
2026-05-05 19:02 -6.11759 106.65225 47 ft 11 kts 249°
2026-05-05 19:03 -6.11785 106.65157 47 ft 10 kts 249°
2026-05-05 19:03 -6.11810 106.65091 47 ft 10 kts 249°
2026-05-05 19:03 -6.11834 106.65027 47 ft 10 kts 249°
2026-05-05 19:03 -6.11858 106.64966 47 ft 9 kts 247°
2026-05-05 19:04 -6.11892 106.64885 47 ft 16 kts 247°
2026-05-05 19:04 -6.11934 106.64785 47 ft 15 kts 247°
2026-05-05 19:04 -6.11973 106.64691 47 ft 14 kts 247°
2026-05-05 19:04 -6.12010 106.64603 47 ft 13 kts 247°
2026-05-05 19:05 -6.12030 106.64553 47 ft 13 kts 248°
2026-05-05 19:05 -6.12042 106.64523 47 ft 12 kts 248°
2026-05-05 19:05 -6.12072 106.64449 47 ft 11 kts 248°
2026-05-05 19:06 -6.12100 106.64378 47 ft 11 kts 248°
2026-05-05 19:06 -6.12127 106.64309 47 ft 10 kts 248°
2026-05-05 19:06 -6.12152 106.64244 47 ft 10 kts 248°
2026-05-05 19:06 -6.12177 106.64182 47 ft 9 kts 248°
2026-05-05 19:07 -6.12201 106.64121 47 ft 9 kts 248°
2026-05-05 19:07 -6.12216 106.64083 47 ft 9 kts 248°
2026-05-05 19:07 -6.12245 106.64008 47 ft 8 kts 248°
2026-05-05 19:07 -6.12250 106.63953 47 ft 8 kts 280°
2026-05-05 19:08 -6.12227 106.63905 47 ft 8 kts 313°
2026-05-05 19:08 -6.12179 106.63893 47 ft 7 kts 15°
2026-05-05 19:08 -6.12140 106.63903 47 ft 7 kts 15°
2026-05-05 19:08 -6.12097 106.63921 47 ft 7 kts 38°
2026-05-05 19:09 -6.12069 106.63958 47 ft 7 kts 61°
2026-05-05 19:09 -6.12046 106.64011 47 ft 16 kts 67°
2026-05-05 19:09 -6.11921 106.64317 47 ft 88 kts 68°
2026-05-05 19:09 -6.11581 106.65149 49 ft 168 kts 66°
2026-05-05 19:10 -6.11091 106.66359 528 ft 195 kts 68°
2026-05-05 19:10 -6.10603 106.67580 1800 ft 181 kts 63°
2026-05-05 19:10 -6.09994 106.68624 2736 ft 165 kts 59°
2026-05-05 19:10 -6.09291 106.69530 3317 ft 170 kts 48°
2026-05-05 19:11 -6.08429 106.70411 3685 ft 185 kts 48°
2026-05-05 19:11 -6.07469 106.71382 3945 ft 207 kts 47°
2026-05-05 19:11 -6.06409 106.72450 4197 ft 225 kts 47°
2026-05-05 19:11 -6.05258 106.73612 4408 ft 246 kts 47°
2026-05-05 19:12 -6.03993 106.74890 4625 ft 269 kts 46°
2026-05-05 19:12 -6.02643 106.76256 4908 ft 280 kts 46°
2026-05-05 19:12 -6.01263 106.77650 4982 ft 283 kts 46°
2026-05-05 19:12 -5.99816 106.78989 5092 ft 282 kts 39°
2026-05-05 19:13 -5.98274 106.80176 5647 ft 286 kts 38°
2026-05-05 19:13 -5.96679 106.81369 6511 ft 287 kts 38°
2026-05-05 19:13 -5.95050 106.82573 7221 ft 291 kts 37°
2026-05-05 19:13 -5.93423 106.83776 8084 ft 290 kts 37°
2026-05-05 19:14 -5.91794 106.84980 8859 ft 292 kts 37°
2026-05-05 19:14 -5.90158 106.86190 9600 ft 293 kts 37°
2026-05-05 19:14 -5.88510 106.87408 10294 ft 297 kts 37°
2026-05-05 19:14 -5.86809 106.88668 10702 ft 312 kts 37°
2026-05-05 19:15 -5.85004 106.90004 10913 ft 333 kts 37°
2026-05-05 19:15 -5.83083 106.91425 11129 ft 354 kts 37°
2026-05-05 19:15 -5.81714 106.92438 11274 ft 368 kts 37°
2026-05-05 19:15 -5.79604 106.93999 11635 ft 382 kts 37°
2026-05-05 19:16 -5.77483 106.95569 12371 ft 385 kts 37°
2026-05-05 19:16 -5.75329 106.97163 13199 ft 385 kts 37°
2026-05-05 19:16 -5.73175 106.98758 14019 ft 385 kts 37°
2026-05-05 19:16 -5.71002 107.00365 14605 ft 392 kts 37°
2026-05-05 19:17 -5.68782 107.02008 15071 ft 401 kts 37°
2026-05-05 19:17 -5.66519 107.03682 15578 ft 407 kts 37°
2026-05-05 19:17 -5.64226 107.05378 16135 ft 412 kts 37°
2026-05-05 19:17 -5.61903 107.07096 16703 ft 417 kts 37°
2026-05-05 19:18 -5.59560 107.08829 17269 ft 420 kts 37°
2026-05-05 19:18 -5.57194 107.10579 17831 ft 424 kts 37°
2026-05-05 19:18 -5.54811 107.12341 18374 ft 427 kts 37°
2026-05-05 19:18 -5.52406 107.14119 18901 ft 431 kts 38°
2026-05-05 19:19 -5.49984 107.15909 19411 ft 435 kts 38°
2026-05-05 19:19 -5.47539 107.17717 19911 ft 438 kts 38°
2026-05-05 19:19 -5.45074 107.19539 20395 ft 442 kts 37°
2026-05-05 19:19 -5.42590 107.21375 20869 ft 445 kts 37°
2026-05-05 19:20 -5.40084 107.23227 21333 ft 449 kts 37°
2026-05-05 19:20 -5.37562 107.25091 21786 ft 452 kts 37°
2026-05-05 19:20 -5.35025 107.26966 22227 ft 456 kts 37°
2026-05-05 19:20 -5.32461 107.28859 22661 ft 459 kts 37°
2026-05-05 19:21 -5.29876 107.30769 23084 ft 463 kts 37°
2026-05-05 19:21 -5.27274 107.32691 23501 ft 466 kts 37°
2026-05-05 19:21 -5.24655 107.34625 23907 ft 469 kts 37°
2026-05-05 19:21 -5.22023 107.36569 24303 ft 473 kts 37°
2026-05-05 19:22 -5.19358 107.38537 24694 ft 476 kts 37°
2026-05-05 19:22 -5.16682 107.40513 25074 ft 479 kts 37°
2026-05-05 19:22 -5.13992 107.42499 25469 ft 482 kts 37°
2026-05-05 19:22 -5.11279 107.44501 25850 ft 485 kts 37°
2026-05-05 19:23 -5.08556 107.46511 26211 ft 488 kts 36°
2026-05-05 19:23 -5.05812 107.48536 26569 ft 491 kts 36°
2026-05-05 19:23 -5.03051 107.50573 26916 ft 494 kts 36°
2026-05-05 19:23 -5.00277 107.52620 27249 ft 496 kts 36°
2026-05-05 19:24 -4.97490 107.54676 27570 ft 499 kts 36°
2026-05-05 19:24 -4.94690 107.56742 27877 ft 502 kts 36°
2026-05-05 19:24 -4.91867 107.58824 28172 ft 504 kts 36°
2026-05-05 19:24 -4.89075 107.60883 28453 ft 506 kts 36°
2026-05-05 19:25 -4.86230 107.62981 28727 ft 509 kts 36°
2026-05-05 19:25 -4.83373 107.65088 28988 ft 511 kts 36°
2026-05-05 19:25 -4.80507 107.67201 29240 ft 513 kts 36°
2026-05-05 19:25 -4.77624 107.69326 29484 ft 515 kts 36°
2026-05-05 19:26 -4.74729 107.71460 29717 ft 517 kts 36°
2026-05-05 19:26 -4.71825 107.73601 29940 ft 519 kts 36°
2026-05-05 19:26 -4.68909 107.75750 30154 ft 521 kts 36°
2026-05-05 19:26 -4.65986 107.77904 30359 ft 523 kts 36°
2026-05-05 19:27 -4.63052 107.80065 30576 ft 524 kts 36°
2026-05-05 19:27 -4.60111 107.82232 30753 ft 526 kts 36°
2026-05-05 19:27 -4.57162 107.84405 30923 ft 527 kts 36°
2026-05-05 19:27 -4.54200 107.86587 31090 ft 529 kts 36°
2026-05-05 19:28 -4.51234 107.88771 31250 ft 530 kts 36°
2026-05-05 19:28 -4.48257 107.90964 31402 ft 531 kts 36°
2026-05-05 19:28 -4.45279 107.93157 31544 ft 533 kts 36°
2026-05-05 19:28 -4.42288 107.95359 31719 ft 533 kts 36°
2026-05-05 19:29 -4.39305 107.97556 31951 ft 532 kts 36°
2026-05-05 19:29 -4.36328 107.99750 32187 ft 531 kts 36°
2026-05-05 19:29 -4.33351 108.01943 32416 ft 530 kts 36°
2026-05-05 19:29 -4.30381 108.04129 32620 ft 530 kts 36°
2026-05-05 19:30 -4.27416 108.06312 32865 ft 529 kts 36°
2026-05-05 19:30 -4.24451 108.08493 33091 ft 528 kts 36°
2026-05-05 19:30 -4.21495 108.10668 33313 ft 527 kts 36°
2026-05-05 19:30 -4.18551 108.12835 33528 ft 526 kts 36°
2026-05-05 19:31 -4.15598 108.15007 33739 ft 525 kts 36°
2026-05-05 19:31 -4.12658 108.17174 33942 ft 524 kts 37°
2026-05-05 19:31 -4.09768 108.19394 34140 ft 524 kts 38°
2026-05-05 19:31 -4.06913 108.21649 34334 ft 523 kts 38°
2026-05-05 19:32 -4.04056 108.23903 34522 ft 522 kts 38°
2026-05-05 19:32 -4.01202 108.26146 34705 ft 521 kts 38°
2026-05-05 19:32 -3.98343 108.28389 34820 ft 521 kts 38°
2026-05-05 19:32 -3.95489 108.30625 34846 ft 521 kts 38°
2026-05-05 19:33 -3.89785 108.35089 34846 ft 520 kts 38°
2026-05-05 19:33 -3.84504 108.39222 34846 ft 520 kts 38°
2026-05-05 19:34 -3.79248 108.43335 34846 ft 520 kts 38°
2026-05-05 19:35 -3.71098 108.49709 34846 ft 519 kts 38°
2026-05-05 19:35 -3.65812 108.53843 34846 ft 519 kts 38°
2026-05-05 19:36 -3.60117 108.58295 34846 ft 519 kts 38°
2026-05-05 19:36 -3.54431 108.62738 34846 ft 519 kts 38°
2026-05-05 19:37 -3.48744 108.67182 34846 ft 519 kts 38°
2026-05-05 19:37 -3.43052 108.71630 34846 ft 519 kts 38°
2026-05-05 19:38 -3.37363 108.76074 34846 ft 519 kts 38°
2026-05-05 19:38 -3.31670 108.80521 34846 ft 519 kts 38°
2026-05-05 19:39 -3.25976 108.84968 34846 ft 519 kts 38°
2026-05-05 19:39 -3.20285 108.89412 34846 ft 519 kts 38°
2026-05-05 19:40 -3.14595 108.93855 34846 ft 519 kts 38°
2026-05-05 19:40 -3.08948 108.98265 34846 ft 519 kts 38°
2026-05-05 19:41 -3.03240 109.02721 34846 ft 521 kts 39°
2026-05-05 19:41 -2.97522 109.07183 34846 ft 521 kts 39°
2026-05-05 19:42 -2.91800 109.11647 34846 ft 521 kts 39°
2026-05-05 19:42 -2.86108 109.16151 34846 ft 521 kts 40°
2026-05-05 19:43 -2.80483 109.20722 34846 ft 521 kts 40°
2026-05-05 19:43 -2.74843 109.25295 34846 ft 522 kts 40°
2026-05-05 19:44 -2.69202 109.29863 34846 ft 522 kts 40°
2026-05-05 19:44 -2.63558 109.34432 34846 ft 522 kts 40°
2026-05-05 19:45 -2.57914 109.39002 34846 ft 522 kts 40°
2026-05-05 19:45 -2.52269 109.43572 34846 ft 522 kts 40°
2026-05-05 19:46 -2.46621 109.48143 34846 ft 522 kts 40°
2026-05-05 19:46 -2.40960 109.52723 34847 ft 524 kts 40°
2026-05-05 19:47 -2.35281 109.57318 34847 ft 525 kts 40°
2026-05-05 19:47 -2.29640 109.61882 34846 ft 525 kts 40°
2026-05-05 19:48 -2.23949 109.66485 34846 ft 525 kts 40°
2026-05-05 19:48 -2.21527 109.68444 34846 ft 525 kts 40°
2026-05-05 19:49 -2.17082 109.72039 34846 ft 526 kts 40°
2026-05-05 19:49 -2.11393 109.76640 34847 ft 527 kts 40°
2026-05-05 19:50 -2.05683 109.81257 34846 ft 527 kts 40°
2026-05-05 19:50 -1.99980 109.85869 34846 ft 527 kts 40°
2026-05-05 19:51 -1.94275 109.90481 34846 ft 527 kts 40°
2026-05-05 19:51 -1.88579 109.95087 34846 ft 527 kts 40°
2026-05-05 19:52 -1.82887 109.99689 34846 ft 527 kts 40°
2026-05-05 19:52 -1.77198 110.04288 34846 ft 527 kts 40°
2026-05-05 19:53 -1.71480 110.08909 34846 ft 527 kts 40°
2026-05-05 19:53 -1.65752 110.13485 34846 ft 527 kts 38°
2026-05-05 19:54 -1.59854 110.17917 34846 ft 527 kts 38°
2026-05-05 19:54 -1.54041 110.22317 34846 ft 527 kts 38°
2026-05-05 19:55 -1.48196 110.26758 34846 ft 527 kts 38°
2026-05-05 19:55 -1.42354 110.31199 34846 ft 527 kts 38°
2026-05-05 19:56 -1.36516 110.35637 34846 ft 527 kts 38°
2026-05-05 19:56 -1.30674 110.40077 34846 ft 527 kts 38°
2026-05-05 19:57 -1.24865 110.44561 34847 ft 527 kts 39°
2026-05-05 19:57 -1.19084 110.49071 34846 ft 527 kts 39°
2026-05-05 19:58 -1.13298 110.53581 34846 ft 527 kts 39°
2026-05-05 19:58 -1.07971 110.57731 34846 ft 526 kts 39°
2026-05-05 19:59 -1.05514 110.59645 34846 ft 525 kts 39°
2026-05-05 19:59 -1.03946 110.60866 34846 ft 525 kts 39°
2026-05-05 20:00 -0.98182 110.65357 34846 ft 525 kts 39°
2026-05-05 20:00 -0.93349 110.69123 34846 ft 525 kts 39°
2026-05-05 20:01 -0.89538 110.72091 34846 ft 525 kts 39°
2026-05-05 20:01 -0.83809 110.76554 34846 ft 525 kts 39°
2026-05-05 20:02 -0.78044 110.81044 34846 ft 525 kts 39°
2026-05-05 20:02 -0.72276 110.85536 34846 ft 525 kts 39°
2026-05-05 20:03 -0.66510 110.90028 34846 ft 525 kts 39°
2026-05-05 20:03 -0.60749 110.94515 34846 ft 525 kts 39°
2026-05-05 20:04 -0.54983 110.99005 34846 ft 525 kts 39°
2026-05-05 20:04 -0.49223 111.03492 34846 ft 525 kts 39°
2026-05-05 20:05 -0.43457 111.07982 34846 ft 525 kts 39°
2026-05-05 20:05 -0.37698 111.12469 34846 ft 525 kts 39°
2026-05-05 20:06 -0.31922 111.16945 34951 ft 525 kts 39°
2026-05-05 20:06 -0.29036 111.19181 35160 ft 524 kts 39°
2026-05-05 20:06 -0.26160 111.21411 35351 ft 524 kts 39°
2026-05-05 20:06 -0.23282 111.23642 35533 ft 523 kts 39°
2026-05-05 20:07 -0.20442 111.25845 35712 ft 523 kts 39°
2026-05-05 20:07 -0.17540 111.28096 35891 ft 522 kts 39°
2026-05-05 20:07 -0.14670 111.30322 36064 ft 522 kts 39°
2026-05-05 20:07 -0.11808 111.32542 36234 ft 521 kts 39°
2026-05-05 20:08 -0.08937 111.34769 36401 ft 521 kts 39°
2026-05-05 20:08 -0.06078 111.36987 36564 ft 520 kts 39°
2026-05-05 20:08 -0.03223 111.39202 36722 ft 520 kts 39°
2026-05-05 20:09 0.02428 111.43586 36852 ft 517 kts 39°
2026-05-05 20:09 0.08096 111.47982 36846 ft 515 kts 39°
2026-05-05 20:10 0.13759 111.52375 36847 ft 515 kts 39°
2026-05-05 20:10 0.19133 111.56543 36846 ft 515 kts 39°
2026-05-05 20:10 0.21961 111.58737 36969 ft 514 kts 39°
2026-05-05 20:11 0.24782 111.60926 37029 ft 514 kts 39°
2026-05-05 20:11 0.30406 111.65288 37052 ft 515 kts 39°
2026-05-05 20:12 0.36076 111.69687 37053 ft 515 kts 39°
2026-05-05 20:12 0.41732 111.74075 37053 ft 515 kts 39°
2026-05-05 20:13 0.47390 111.78464 37053 ft 515 kts 39°
2026-05-05 20:13 0.53051 111.82855 37053 ft 515 kts 39°
2026-05-05 20:14 0.58709 111.87245 37053 ft 515 kts 39°
2026-05-05 20:14 0.63952 111.91312 37053 ft 515 kts 39°
2026-05-05 20:15 0.69612 111.95704 37053 ft 515 kts 39°
2026-05-05 20:15 0.75264 112.00089 37053 ft 515 kts 39°
2026-05-05 20:16 0.80928 112.04483 37053 ft 515 kts 39°
2026-05-05 20:16 0.86587 112.08875 37053 ft 514 kts 39°
2026-05-05 20:17 0.92200 112.13230 37053 ft 513 kts 39°
2026-05-05 20:17 0.97835 112.17603 37053 ft 513 kts 39°
2026-05-05 20:18 1.03479 112.21982 37053 ft 513 kts 39°
2026-05-05 20:18 1.09113 112.26355 37053 ft 513 kts 39°
2026-05-05 20:19 1.14753 112.30733 37053 ft 513 kts 39°
2026-05-05 20:19 1.20388 112.35107 37053 ft 513 kts 39°
2026-05-05 20:20 1.26022 112.39479 37053 ft 513 kts 39°
2026-05-05 20:20 1.31655 112.43852 37053 ft 513 kts 39°
2026-05-05 20:21 1.37287 112.48224 37053 ft 513 kts 39°
2026-05-05 20:21 1.42917 112.52596 37053 ft 512 kts 39°
2026-05-05 20:22 1.48548 112.56968 37053 ft 512 kts 39°
2026-05-05 20:22 1.54139 112.61309 36911 ft 512 kts 39°
2026-05-05 20:23 1.59750 112.65686 36858 ft 512 kts 39°
2026-05-05 20:23 1.65347 112.70076 36853 ft 512 kts 39°
2026-05-05 20:24 1.70951 112.74473 36850 ft 512 kts 39°
2026-05-05 20:24 1.76559 112.78874 36847 ft 512 kts 39°
2026-05-05 20:25 1.81565 112.82802 36846 ft 512 kts 39°
2026-05-05 20:25 1.87167 112.87197 36844 ft 512 kts 39°
2026-05-05 20:26 1.92768 112.91592 36842 ft 512 kts 39°
2026-05-05 20:26 1.98366 112.95985 36840 ft 512 kts 39°
2026-05-05 20:27 2.03969 113.00382 36839 ft 512 kts 39°
2026-05-05 20:27 2.09573 113.04782 36820 ft 512 kts 39°
2026-05-05 20:28 2.15167 113.09173 36816 ft 511 kts 39°
2026-05-05 20:28 2.20776 113.13577 36817 ft 514 kts 39°
2026-05-05 20:29 2.26400 113.17993 36817 ft 514 kts 39°
2026-05-05 20:29 2.31994 113.22386 36816 ft 514 kts 39°
2026-05-05 20:30 2.37625 113.26809 36816 ft 514 kts 39°
2026-05-05 20:30 2.43252 113.31228 36817 ft 514 kts 39°
2026-05-05 20:31 2.48880 113.35649 36817 ft 514 kts 39°
2026-05-05 20:31 2.54509 113.40071 36817 ft 514 kts 39°
2026-05-05 20:32 2.60141 113.44496 36817 ft 515 kts 39°
2026-05-05 20:32 2.65769 113.48920 36817 ft 515 kts 39°
2026-05-05 20:33 2.71396 113.53344 36817 ft 515 kts 39°
2026-05-05 20:33 2.77028 113.57772 36817 ft 515 kts 39°
2026-05-05 20:34 2.82621 113.62178 36816 ft 515 kts 39°
2026-05-05 20:34 2.87911 113.66348 36817 ft 516 kts 39°
2026-05-05 20:35 2.93555 113.70799 36817 ft 516 kts 39°
2026-05-05 20:35 2.99191 113.75244 36817 ft 516 kts 39°
2026-05-05 20:36 3.04824 113.79686 36817 ft 516 kts 39°
2026-05-05 20:36 3.10458 113.84129 36817 ft 516 kts 39°
2026-05-05 20:37 3.16098 113.88578 36816 ft 516 kts 39°
2026-05-05 20:37 3.21743 113.93032 36817 ft 516 kts 39°
2026-05-05 20:38 3.27340 113.97449 36817 ft 516 kts 39°
2026-05-05 20:38 3.32972 114.01894 36817 ft 516 kts 39°
2026-05-05 20:39 3.38610 114.06345 36817 ft 516 kts 39°
2026-05-05 20:39 3.44247 114.10795 36817 ft 516 kts 39°
2026-05-05 20:40 3.49882 114.15244 36841 ft 516 kts 39°
2026-05-05 20:40 3.55527 114.19703 36846 ft 517 kts 39°
2026-05-05 20:41 3.61174 114.24164 36847 ft 517 kts 39°
2026-05-05 20:41 3.66815 114.28621 36847 ft 517 kts 39°
2026-05-05 20:42 3.72462 114.33080 36848 ft 517 kts 39°
2026-05-05 20:42 3.78112 114.37547 36847 ft 517 kts 39°
2026-05-05 20:43 3.83750 114.42004 36847 ft 517 kts 39°
2026-05-05 20:43 3.88867 114.46052 36847 ft 517 kts 39°
2026-05-05 20:44 3.92854 114.49203 36848 ft 517 kts 39°
2026-05-05 20:44 3.99215 114.54056 36849 ft 517 kts 38°
2026-05-05 20:45 4.07677 114.60401 36850 ft 518 kts 38°
2026-05-05 20:45 4.13037 114.64443 36851 ft 518 kts 38°
2026-05-05 20:46 4.17614 114.67898 36860 ft 516 kts 38°
2026-05-05 20:46 4.23807 114.72569 36862 ft 515 kts 38°
2026-05-05 20:47 4.28099 114.75810 36863 ft 515 kts 38°
2026-05-05 20:47 4.33672 114.80021 36863 ft 515 kts 38°
2026-05-05 20:48 4.39073 114.84102 36832 ft 512 kts 38°
2026-05-05 20:48 4.44082 114.87888 36834 ft 512 kts 38°
2026-05-05 20:49 4.49351 114.92111 36836 ft 512 kts 40°
2026-05-05 20:49 4.54397 114.96235 36837 ft 512 kts 40°
2026-05-05 20:50 4.59572 115.00433 36838 ft 512 kts 39°
2026-05-05 20:50 4.64848 115.04698 36839 ft 511 kts 39°
2026-05-05 20:51 4.70184 115.09018 36849 ft 512 kts 39°
2026-05-05 20:51 4.75649 115.13444 36848 ft 512 kts 39°
2026-05-05 20:52 4.80677 115.17516 36846 ft 512 kts 39°
2026-05-05 20:52 4.86128 115.21931 36844 ft 511 kts 39°
2026-05-05 20:53 4.91519 115.26178 36841 ft 512 kts 39°
2026-05-05 20:53 4.96739 115.30292 36838 ft 512 kts 39°
2026-05-05 20:54 5.02133 115.34552 36834 ft 512 kts 39°
2026-05-05 20:54 5.07404 115.38718 36830 ft 511 kts 39°
2026-05-05 20:55 5.12552 115.42785 36828 ft 511 kts 39°
2026-05-05 20:55 5.18012 115.47096 36827 ft 511 kts 39°
2026-05-05 20:56 5.22979 115.51025 36826 ft 511 kts 39°
2026-05-05 20:56 5.27735 115.54788 36827 ft 511 kts 39°
2026-05-05 20:57 5.33156 115.59078 36828 ft 512 kts 39°
2026-05-05 20:57 5.38088 115.62979 36829 ft 512 kts 38°
2026-05-05 20:58 5.43090 115.66871 36831 ft 512 kts 38°
2026-05-05 20:58 5.48284 115.70918 36833 ft 512 kts 38°
2026-05-05 20:59 5.53642 115.75096 36835 ft 512 kts 38°
2026-05-05 20:59 5.58895 115.79195 36837 ft 512 kts 38°
2026-05-05 21:00 5.64300 115.83412 36815 ft 511 kts 38°
2026-05-05 21:00 5.69771 115.87675 36796 ft 507 kts 38°
2026-05-05 21:01 5.74872 115.91658 36792 ft 506 kts 38°
2026-05-05 21:01 5.80095 115.95738 36791 ft 506 kts 38°
2026-05-05 21:02 5.85407 115.99888 36789 ft 506 kts 38°
2026-05-05 21:02 5.90746 116.04030 36787 ft 506 kts 37°
2026-05-05 21:03 5.96141 116.07820 36788 ft 506 kts 35°
2026-05-05 21:03 6.01575 116.11572 36788 ft 506 kts 36°
2026-05-05 21:04 6.06762 116.15187 36790 ft 507 kts 36°
2026-05-05 21:04 6.12247 116.19020 36789 ft 507 kts 36°
2026-05-05 21:05 6.17791 116.22897 36791 ft 507 kts 36°
2026-05-05 21:05 6.22930 116.26485 36792 ft 507 kts 36°
2026-05-05 21:06 6.28721 116.30537 36794 ft 507 kts 36°
2026-05-05 21:06 6.34511 116.34592 36797 ft 507 kts 36°
2026-05-05 21:07 6.39653 116.38193 36799 ft 508 kts 36°
2026-05-05 21:07 6.45063 116.41983 36802 ft 508 kts 36°
2026-05-05 21:08 6.50378 116.45705 36806 ft 508 kts 36°
2026-05-05 21:08 6.55685 116.49425 36805 ft 507 kts 36°
2026-05-05 21:09 6.60791 116.53008 36809 ft 507 kts 36°
2026-05-05 21:09 6.66521 116.57036 36810 ft 508 kts 36°
2026-05-05 21:10 6.71915 116.60830 36812 ft 508 kts 36°
2026-05-05 21:10 6.77666 116.64877 36814 ft 508 kts 36°
2026-05-05 21:11 6.83310 116.68851 36844 ft 508 kts 36°
2026-05-05 21:11 6.89081 116.72912 36846 ft 509 kts 36°
2026-05-05 21:12 6.94101 116.76443 36846 ft 509 kts 36°
2026-05-05 21:12 6.99511 116.80253 36846 ft 509 kts 36°
2026-05-05 21:13 7.05259 116.84302 36846 ft 509 kts 36°
2026-05-05 21:13 7.10833 116.88230 36846 ft 508 kts 36°
2026-05-05 21:14 7.16438 116.92182 36846 ft 508 kts 36°
2026-05-05 21:14 7.21706 116.95896 36846 ft 508 kts 36°
2026-05-05 21:15 7.27049 116.99665 36846 ft 508 kts 36°
2026-05-05 21:15 7.32640 117.03610 36846 ft 508 kts 36°
2026-05-05 21:16 7.37895 117.07320 36846 ft 508 kts 36°
2026-05-05 21:16 7.43072 117.10974 36846 ft 508 kts 36°
2026-05-05 21:17 7.48463 117.14778 36846 ft 508 kts 36°
2026-05-05 21:17 7.53538 117.18364 36846 ft 508 kts 36°
2026-05-05 21:18 7.59155 117.22336 36846 ft 508 kts 36°
2026-05-05 21:18 7.63764 117.25595 36846 ft 508 kts 36°
2026-05-05 21:19 7.69427 117.29602 36846 ft 508 kts 36°
2026-05-05 21:19 7.74991 117.33577 36846 ft 508 kts 37°
2026-05-05 21:20 7.80500 117.37519 36846 ft 508 kts 37°
2026-05-05 21:20 7.85932 117.41407 36846 ft 508 kts 37°
2026-05-05 21:21 7.91648 117.45500 36846 ft 509 kts 37°
2026-05-05 21:21 7.97393 117.49615 36846 ft 509 kts 37°
2026-05-05 21:22 8.02889 117.53545 36846 ft 509 kts 37°
2026-05-05 21:22 8.08662 117.57678 36846 ft 509 kts 37°
2026-05-05 21:23 8.13976 117.61486 36846 ft 509 kts 37°
2026-05-05 21:23 8.19316 117.65314 36837 ft 509 kts 37°
2026-05-05 21:24 8.24733 117.69199 36823 ft 509 kts 37°
2026-05-05 21:24 8.30134 117.73073 36823 ft 509 kts 37°
2026-05-05 21:25 8.35363 117.76825 36822 ft 509 kts 37°
2026-05-05 21:25 8.40866 117.80776 36822 ft 509 kts 37°
2026-05-05 21:26 8.45946 117.84424 36822 ft 509 kts 37°
2026-05-05 21:26 8.51231 117.88220 36822 ft 509 kts 37°
2026-05-05 21:27 8.56863 117.92267 36822 ft 509 kts 37°
2026-05-05 21:27 8.62275 117.96158 36821 ft 509 kts 37°
2026-05-05 21:28 8.67552 117.99953 36821 ft 509 kts 37°
2026-05-05 21:28 8.72500 118.03512 36820 ft 509 kts 37°
2026-05-05 21:29 8.78227 118.07634 36820 ft 509 kts 37°
2026-05-05 21:29 8.83528 118.11447 36820 ft 509 kts 37°
2026-05-05 21:30 8.88745 118.15203 36853 ft 508 kts 36°
2026-05-05 21:30 8.94103 118.19064 36865 ft 508 kts 36°
2026-05-05 21:31 8.99364 118.22858 36867 ft 508 kts 36°
2026-05-05 21:31 9.04559 118.26605 36868 ft 508 kts 36°
2026-05-05 21:32 9.10037 118.30562 36869 ft 508 kts 36°
2026-05-05 21:32 9.15514 118.34530 36870 ft 508 kts 36°
2026-05-05 21:33 9.20804 118.38365 36871 ft 508 kts 36°
2026-05-05 21:33 9.26047 118.42168 36873 ft 509 kts 36°
2026-05-05 21:34 9.31266 118.45955 36873 ft 509 kts 36°
2026-05-05 21:34 9.36605 118.49828 36874 ft 509 kts 36°
2026-05-05 21:35 9.41696 118.53519 36874 ft 509 kts 36°
2026-05-05 21:35 9.46799 118.57223 36875 ft 509 kts 36°
2026-05-05 21:36 9.52264 118.61187 36875 ft 509 kts 36°
2026-05-05 21:36 9.57819 118.65224 36875 ft 509 kts 36°
2026-05-05 21:37 9.63371 118.69263 36875 ft 509 kts 36°
2026-05-05 21:37 9.68549 118.73031 36876 ft 509 kts 36°
2026-05-05 21:38 9.73783 118.76840 36876 ft 509 kts 36°
2026-05-05 21:38 9.79187 118.80672 36876 ft 509 kts 34°
2026-05-05 21:39 9.84023 118.84048 36876 ft 509 kts 34°
2026-05-05 21:39 9.89394 118.87812 36876 ft 509 kts 34°
2026-05-05 21:40 9.94993 118.91744 36875 ft 509 kts 34°
2026-05-05 21:40 10.00383 118.95534 36875 ft 509 kts 34°
2026-05-05 21:41 10.04883 118.98694 36875 ft 509 kts 34°
2026-05-05 21:41 10.10450 119.02604 36875 ft 509 kts 34°
2026-05-05 21:42 10.15734 119.06319 36875 ft 509 kts 34°
2026-05-05 21:42 10.21135 119.10120 36875 ft 509 kts 34°
2026-05-05 21:43 10.26412 119.13835 36874 ft 509 kts 34°
2026-05-05 21:43 10.31480 119.17406 36874 ft 509 kts 34°
2026-05-05 21:44 10.36953 119.21263 36874 ft 509 kts 34°
2026-05-05 21:44 10.42265 119.25008 36876 ft 509 kts 34°
2026-05-05 21:45 10.47564 119.28747 36875 ft 509 kts 34°
2026-05-05 21:45 10.52924 119.32529 36876 ft 509 kts 34°
2026-05-05 21:46 10.57957 119.36082 36876 ft 509 kts 34°
2026-05-05 21:46 10.63298 119.39854 36876 ft 509 kts 34°
2026-05-05 21:47 10.68489 119.43522 36876 ft 509 kts 34°
2026-05-05 21:47 10.73909 119.47354 36876 ft 509 kts 34°
2026-05-05 21:48 10.79108 119.51030 36876 ft 509 kts 34°
2026-05-05 21:48 10.84401 119.54775 36876 ft 509 kts 34°
2026-05-05 21:49 10.90016 119.58750 36876 ft 509 kts 34°
2026-05-05 21:49 10.95167 119.62397 36876 ft 509 kts 34°
2026-05-05 21:50 11.00608 119.66252 36876 ft 509 kts 34°
2026-05-05 21:50 11.06109 119.70151 36876 ft 509 kts 34°
2026-05-05 21:51 11.11883 119.74245 36876 ft 509 kts 34°
2026-05-05 21:51 11.17694 119.78368 36876 ft 509 kts 34°
2026-05-05 21:52 11.26269 119.84455 36874 ft 509 kts 35°
2026-05-05 21:53 11.31375 119.88082 36870 ft 508 kts 35°
2026-05-05 21:53 11.37018 119.92093 36870 ft 508 kts 35°
2026-05-05 21:54 11.42595 119.96058 36870 ft 508 kts 35°
2026-05-05 21:54 11.47931 119.99854 36869 ft 508 kts 35°
2026-05-05 21:55 11.53244 120.03636 36875 ft 509 kts 34°
2026-05-05 21:55 11.58911 120.07671 36874 ft 509 kts 34°
2026-05-05 21:56 11.64532 120.11676 36876 ft 513 kts 34°
2026-05-05 21:56 11.70391 120.15852 36876 ft 514 kts 34°
2026-05-05 21:57 11.76000 120.19851 36876 ft 515 kts 34°
2026-05-05 21:57 11.81671 120.23897 36876 ft 515 kts 34°
2026-05-05 21:58 11.87286 120.27905 36876 ft 515 kts 34°
2026-05-05 21:58 11.92891 120.31909 36876 ft 515 kts 34°
2026-05-05 21:59 11.98461 120.35889 36876 ft 515 kts 34°
2026-05-05 21:59 12.04109 120.39927 36875 ft 515 kts 34°
2026-05-05 22:00 12.09310 120.43647 36876 ft 515 kts 34°
2026-05-05 22:00 12.14660 120.47476 36876 ft 515 kts 34°
2026-05-05 22:01 12.19797 120.51154 36876 ft 515 kts 34°
2026-05-05 22:01 12.25502 120.55241 36876 ft 515 kts 34°
2026-05-05 22:02 12.30886 120.59100 36876 ft 515 kts 34°
2026-05-05 22:02 12.36264 120.62957 36876 ft 516 kts 34°
2026-05-05 22:03 12.41931 120.67023 36875 ft 515 kts 34°
2026-05-05 22:03 12.47279 120.70862 36876 ft 515 kts 34°
2026-05-05 22:04 12.52479 120.74597 36875 ft 515 kts 34°
2026-05-05 22:04 12.57936 120.78518 36876 ft 515 kts 34°
2026-05-05 22:05 12.63255 120.82343 36875 ft 515 kts 34°
2026-05-05 22:05 12.68699 120.86259 36876 ft 516 kts 34°
2026-05-05 22:06 12.74357 120.90331 36876 ft 516 kts 34°
2026-05-05 22:06 12.79804 120.94254 36876 ft 516 kts 34°
2026-05-05 22:07 12.85306 120.98218 36876 ft 516 kts 34°
2026-05-05 22:07 12.90684 121.02096 36876 ft 516 kts 34°
2026-05-05 22:08 12.96200 121.06075 36944 ft 515 kts 34°
2026-05-05 22:08 13.01331 121.09778 37019 ft 516 kts 34°
2026-05-05 22:09 13.07165 121.13991 37023 ft 516 kts 34°
2026-05-05 22:09 13.12714 121.18000 37023 ft 515 kts 34°
2026-05-05 22:10 13.17968 121.21798 37024 ft 515 kts 34°
2026-05-05 22:10 13.23538 121.25827 37024 ft 515 kts 34°
2026-05-05 22:11 13.29072 121.29832 37023 ft 515 kts 34°
2026-05-05 22:11 13.34286 121.33607 37023 ft 515 kts 34°
2026-05-05 22:12 13.39941 121.37705 37023 ft 516 kts 34°
2026-05-05 22:12 13.45150 121.41481 37023 ft 516 kts 34°
2026-05-05 22:13 13.50518 121.45375 37023 ft 516 kts 34°
2026-05-05 22:13 13.56200 121.49499 37023 ft 516 kts 34°
2026-05-05 22:14 13.61602 121.53422 37023 ft 517 kts 34°
2026-05-05 22:14 13.66740 121.57155 37024 ft 517 kts 34°
2026-05-05 22:15 13.72385 121.61259 37024 ft 517 kts 34°
2026-05-05 22:15 13.77448 121.64942 37023 ft 517 kts 34°
2026-05-05 22:16 13.82515 121.68630 37024 ft 517 kts 34°
2026-05-05 22:16 13.87945 121.72584 37023 ft 517 kts 34°
2026-05-05 22:17 13.93104 121.76343 37024 ft 517 kts 34°
2026-05-05 22:17 13.98872 121.80549 37023 ft 517 kts 34°
2026-05-05 22:18 14.04319 121.84523 37023 ft 517 kts 34°
2026-05-05 22:18 14.08958 121.87909 37023 ft 517 kts 34°
2026-05-05 22:19 14.14417 121.91896 37024 ft 517 kts 34°
2026-05-05 22:19 14.19658 121.95726 37023 ft 517 kts 34°
2026-05-05 22:20 14.24910 121.99566 37024 ft 517 kts 34°
2026-05-05 22:20 14.30566 122.03704 37023 ft 517 kts 34°
2026-05-05 22:21 14.35613 122.07399 37023 ft 517 kts 34°
2026-05-05 22:21 14.41470 122.11690 37024 ft 516 kts 34°
2026-05-05 22:22 14.47330 122.15978 37023 ft 516 kts 34°
2026-05-05 22:22 14.52982 122.20122 37023 ft 516 kts 34°
2026-05-05 22:23 14.58629 122.24271 37023 ft 516 kts 34°
2026-05-05 22:23 14.64119 122.28307 37023 ft 516 kts 34°
2026-05-05 22:24 14.69581 122.32322 37024 ft 516 kts 34°
2026-05-05 22:24 14.75107 122.36523 37024 ft 516 kts 36°
2026-05-05 22:25 14.80274 122.40550 37023 ft 515 kts 36°
2026-05-05 22:25 14.85616 122.44702 37024 ft 515 kts 36°
2026-05-05 22:26 14.90953 122.48847 37024 ft 515 kts 36°
2026-05-05 22:26 14.96689 122.53302 37023 ft 515 kts 36°
2026-05-05 22:27 15.02420 122.57740 36922 ft 515 kts 36°
2026-05-05 22:27 15.08014 122.62081 36914 ft 515 kts 36°
2026-05-05 22:28 15.13229 122.66133 36913 ft 516 kts 36°
2026-05-05 22:28 15.18214 122.70010 36914 ft 516 kts 36°
2026-05-05 22:29 15.23750 122.74318 36914 ft 515 kts 36°
2026-05-05 22:29 15.28694 122.78168 36914 ft 515 kts 36°
2026-05-05 22:30 15.33627 122.82012 36915 ft 515 kts 36°
2026-05-05 22:30 15.38892 122.86114 36916 ft 515 kts 36°
2026-05-05 22:31 15.44218 122.90263 36915 ft 515 kts 36°
2026-05-05 22:31 15.49753 122.94587 36916 ft 515 kts 36°
2026-05-05 22:32 15.55106 122.98774 36916 ft 515 kts 36°
2026-05-05 22:32 15.60457 123.02961 36916 ft 515 kts 36°
2026-05-05 22:33 15.65986 123.07289 36916 ft 515 kts 36°
2026-05-05 22:33 15.71303 123.11453 36917 ft 515 kts 36°
2026-05-05 22:34 15.76140 123.15247 36917 ft 515 kts 36°
2026-05-05 22:34 15.81494 123.19451 36917 ft 515 kts 36°
2026-05-05 22:35 15.87082 123.23842 36917 ft 515 kts 36°
2026-05-05 22:35 15.92322 123.27958 36917 ft 515 kts 36°
2026-05-05 22:36 15.97701 123.32173 36917 ft 515 kts 36°
2026-05-05 22:36 16.03214 123.36504 36917 ft 515 kts 36°
2026-05-05 22:37 16.08599 123.40740 36917 ft 515 kts 36°
2026-05-05 22:37 16.13715 123.44769 36968 ft 515 kts 36°
2026-05-05 22:37 16.16362 123.46854 37221 ft 514 kts 36°
2026-05-05 22:38 16.18941 123.48886 37488 ft 512 kts 36°
2026-05-05 22:38 16.21752 123.51103 37716 ft 511 kts 36°
2026-05-05 22:38 16.24521 123.53287 37917 ft 511 kts 36°
2026-05-05 22:38 16.27312 123.55489 38115 ft 510 kts 36°
2026-05-05 22:39 16.29841 123.57486 38283 ft 509 kts 36°
2026-05-05 22:39 16.32260 123.59395 38435 ft 509 kts 37°
2026-05-05 22:39 16.34852 123.61443 38588 ft 508 kts 37°
2026-05-05 22:39 16.37323 123.63395 38726 ft 508 kts 37°
2026-05-05 22:40 16.39938 123.65462 38864 ft 508 kts 37°
2026-05-05 22:40 16.45436 123.69810 38916 ft 508 kts 37°
2026-05-05 22:41 16.50689 123.73966 38917 ft 508 kts 37°
2026-05-05 22:41 16.55575 123.77836 38917 ft 507 kts 37°
2026-05-05 22:42 16.60551 123.81779 38946 ft 507 kts 37°
2026-05-05 22:42 16.65020 123.85322 38947 ft 507 kts 37°
2026-05-05 22:43 16.69962 123.89243 38947 ft 507 kts 37°
2026-05-05 22:43 16.74922 123.93181 38948 ft 507 kts 37°
2026-05-05 22:44 16.80032 123.97241 38948 ft 507 kts 37°
2026-05-05 22:44 16.85485 124.01577 38948 ft 507 kts 37°
2026-05-05 22:45 16.90642 124.05680 38937 ft 505 kts 37°
2026-05-05 22:45 16.95940 124.09899 38935 ft 503 kts 37°
2026-05-05 22:46 17.00830 124.13795 38935 ft 504 kts 37°
2026-05-05 22:46 17.06208 124.18084 38935 ft 504 kts 37°
2026-05-05 22:47 17.11274 124.22125 38935 ft 504 kts 37°
2026-05-05 22:47 17.16493 124.26280 38934 ft 504 kts 37°
2026-05-05 22:48 17.21646 124.30401 38936 ft 504 kts 37°
2026-05-05 22:48 17.26872 124.34585 38935 ft 504 kts 37°
2026-05-05 22:49 17.32233 124.38879 38935 ft 504 kts 37°
2026-05-05 22:49 17.37407 124.43026 38935 ft 504 kts 37°
2026-05-05 22:50 17.42328 124.46968 38935 ft 504 kts 37°
2026-05-05 22:50 17.47179 124.50861 38935 ft 504 kts 37°
2026-05-05 22:51 17.52541 124.55170 38935 ft 504 kts 37°
2026-05-05 22:51 17.58101 124.59643 38935 ft 504 kts 37°
2026-05-05 22:52 17.63666 124.64123 38935 ft 504 kts 37°
2026-05-05 22:52 17.68843 124.68273 38934 ft 504 kts 37°
2026-05-05 22:53 17.74155 124.72542 38935 ft 504 kts 37°
2026-05-05 22:53 17.79435 124.76793 38934 ft 504 kts 37°
2026-05-05 22:54 17.84397 124.80792 38935 ft 504 kts 37°
2026-05-05 22:54 17.89293 124.84742 38935 ft 504 kts 37°
2026-05-05 22:55 17.94507 124.88952 38935 ft 504 kts 37°
2026-05-05 22:55 18.00066 124.93444 38935 ft 504 kts 37°
2026-05-05 22:56 18.05017 124.97447 38935 ft 504 kts 37°
2026-05-05 22:56 18.10613 125.01977 38935 ft 504 kts 37°
2026-05-05 22:57 18.15730 125.06122 38935 ft 504 kts 37°
2026-05-05 22:57 18.20644 125.10105 38935 ft 504 kts 37°
2026-05-05 22:58 18.25870 125.14344 38935 ft 504 kts 37°
2026-05-05 22:58 18.30834 125.18374 38935 ft 504 kts 37°
2026-05-05 22:59 18.36005 125.22575 38935 ft 504 kts 37°
2026-05-05 22:59 18.40893 125.26549 38935 ft 504 kts 37°
2026-05-05 23:00 18.48743 125.32937 38935 ft 504 kts 37°
2026-05-05 23:00 18.53556 125.36859 38935 ft 504 kts 37°
2026-05-05 23:01 18.58670 125.41027 38935 ft 504 kts 37°
2026-05-05 23:01 18.63907 125.45300 38935 ft 504 kts 37°
2026-05-05 23:02 18.69043 125.49494 38935 ft 504 kts 37°
2026-05-05 23:02 18.74076 125.53606 38935 ft 504 kts 37°
2026-05-05 23:03 18.79121 125.57732 38935 ft 504 kts 37°
2026-05-05 23:03 18.84388 125.62042 38935 ft 504 kts 37°
2026-05-05 23:04 18.89538 125.66261 38935 ft 504 kts 37°
2026-05-05 23:04 18.94597 125.70408 38935 ft 504 kts 37°
2026-05-05 23:05 18.99980 125.74824 38935 ft 504 kts 37°
2026-05-05 23:05 19.04858 125.78830 38935 ft 504 kts 37°
2026-05-05 23:06 19.09976 125.83035 38935 ft 504 kts 37°
2026-05-05 23:06 19.15163 125.87300 38935 ft 504 kts 38°
2026-05-05 23:07 19.20215 125.91459 38935 ft 504 kts 38°
2026-05-05 23:07 19.25314 125.95658 38935 ft 504 kts 38°
2026-05-05 23:08 19.30535 125.99962 38935 ft 504 kts 38°
2026-05-05 23:08 19.35678 126.04206 38935 ft 504 kts 38°
2026-05-05 23:09 19.40780 126.08419 38935 ft 504 kts 38°
2026-05-05 23:09 19.45626 126.12423 38935 ft 504 kts 38°
2026-05-05 23:10 19.51011 126.16878 38935 ft 504 kts 38°
2026-05-05 23:10 19.55996 126.21004 38935 ft 504 kts 38°
2026-05-05 23:11 19.60974 126.25128 38935 ft 504 kts 38°
2026-05-05 23:11 19.66017 126.29309 38935 ft 504 kts 38°
2026-05-05 23:12 19.71270 126.33668 38935 ft 504 kts 38°
2026-05-05 23:12 19.76391 126.37921 38935 ft 504 kts 38°
2026-05-05 23:13 19.81431 126.42110 38935 ft 504 kts 38°
2026-05-05 23:13 19.86338 126.46192 38935 ft 504 kts 38°
2026-05-05 23:14 19.91742 126.50692 38935 ft 504 kts 38°
2026-05-05 23:14 19.96768 126.54880 38935 ft 504 kts 38°
2026-05-05 23:15 20.01673 126.58970 38935 ft 504 kts 38°
2026-05-05 23:15 20.06784 126.63237 38935 ft 504 kts 38°
2026-05-05 23:16 20.11879 126.67493 38935 ft 504 kts 38°
2026-05-05 23:16 20.16759 126.71573 38935 ft 504 kts 38°
2026-05-05 23:17 20.21742 126.75742 38935 ft 504 kts 38°
2026-05-05 23:17 20.26527 126.79750 38935 ft 504 kts 38°
2026-05-05 23:18 20.31752 126.84130 38935 ft 504 kts 38°
2026-05-05 23:18 20.36756 126.88328 38935 ft 504 kts 38°
2026-05-05 23:19 20.41759 126.92528 38935 ft 504 kts 38°
2026-05-05 23:19 20.46914 126.96861 38935 ft 504 kts 38°
2026-05-05 23:20 20.52044 127.01176 38935 ft 504 kts 38°
2026-05-05 23:20 20.57117 127.05446 38935 ft 504 kts 38°
2026-05-05 23:21 20.62244 127.09766 38935 ft 504 kts 38°
2026-05-05 23:21 20.67710 127.14376 38935 ft 504 kts 38°
2026-05-05 23:22 20.73029 127.18866 38935 ft 504 kts 38°
2026-05-05 23:22 20.77416 127.22561 38935 ft 504 kts 38°
2026-05-05 23:23 20.82761 127.27078 38935 ft 504 kts 38°
2026-05-05 23:23 20.87844 127.31384 38935 ft 504 kts 38°
2026-05-05 23:24 20.93023 127.35778 38935 ft 504 kts 38°
2026-05-05 23:24 20.97784 127.39817 38935 ft 504 kts 38°
2026-05-05 23:25 21.03221 127.44371 38935 ft 504 kts 37°
2026-05-05 23:25 21.08270 127.48470 38935 ft 504 kts 37°
2026-05-05 23:26 21.13685 127.52888 38935 ft 504 kts 37°
2026-05-05 23:26 21.19258 127.57449 38935 ft 504 kts 37°
2026-05-05 23:27 21.24543 127.61781 38935 ft 504 kts 37°
2026-05-05 23:27 21.29879 127.66146 38934 ft 504 kts 37°
2026-05-05 23:28 21.35023 127.70351 38935 ft 504 kts 37°
2026-05-05 23:28 21.40394 127.74754 38935 ft 504 kts 37°
2026-05-05 23:29 21.45412 127.78876 38935 ft 504 kts 37°
2026-05-05 23:29 21.50435 127.83006 38935 ft 504 kts 37°
2026-05-05 23:30 21.55517 127.87188 38935 ft 504 kts 37°
2026-05-05 23:30 21.60833 127.91568 38935 ft 504 kts 37°
2026-05-05 23:31 21.65963 127.95798 38935 ft 504 kts 37°
2026-05-05 23:31 21.70931 127.99899 38935 ft 504 kts 37°
2026-05-05 23:32 21.76096 128.04166 38934 ft 504 kts 37°
2026-05-05 23:32 21.81046 128.08259 38935 ft 504 kts 37°
2026-05-05 23:33 21.86603 128.12858 38935 ft 504 kts 37°
2026-05-05 23:33 21.92158 128.17461 38935 ft 504 kts 37°
2026-05-05 23:34 21.97407 128.21814 38935 ft 504 kts 37°
2026-05-05 23:34 22.02963 128.26427 38935 ft 504 kts 37°
2026-05-05 23:35 22.08520 128.31045 38935 ft 504 kts 37°
2026-05-05 23:35 22.14071 128.35662 38935 ft 504 kts 37°
2026-05-05 23:36 22.19626 128.40288 38935 ft 504 kts 37°
2026-05-05 23:36 22.25177 128.44915 38935 ft 504 kts 37°
2026-05-05 23:37 22.30727 128.49546 38935 ft 504 kts 37°
2026-05-05 23:37 22.36276 128.54181 38935 ft 504 kts 37°
2026-05-05 23:38 22.41823 128.58819 38935 ft 504 kts 37°
2026-05-05 23:38 22.47367 128.63460 38935 ft 504 kts 37°
2026-05-05 23:39 22.52910 128.68104 38935 ft 504 kts 37°
2026-05-05 23:39 22.58456 128.72756 38935 ft 504 kts 37°
2026-05-05 23:40 22.63959 128.77377 38935 ft 504 kts 37°
2026-05-05 23:40 22.69498 128.82032 38935 ft 504 kts 37°
2026-05-05 23:41 22.75035 128.86691 38935 ft 504 kts 37°
2026-05-05 23:41 22.80581 128.91346 38935 ft 504 kts 37°
2026-05-05 23:42 22.86112 128.96014 38935 ft 504 kts 38°
2026-05-05 23:42 22.91644 129.00691 38935 ft 504 kts 38°
2026-05-05 23:43 22.97042 129.05257 38935 ft 504 kts 38°
2026-05-05 23:43 23.02029 129.09428 38935 ft 504 kts 36°
2026-05-05 23:44 23.07470 129.13558 38935 ft 504 kts 34°
2026-05-05 23:44 23.12609 129.17420 38935 ft 504 kts 34°
2026-05-05 23:45 23.17583 129.21195 38935 ft 504 kts 34°
2026-05-05 23:45 23.23229 129.25498 38935 ft 504 kts 35°
2026-05-05 23:46 23.28025 129.29162 38935 ft 504 kts 35°
2026-05-05 23:46 23.32589 129.32631 38935 ft 504 kts 34°
2026-05-05 23:47 23.37987 129.36746 38935 ft 504 kts 35°
2026-05-05 23:47 23.43410 129.40892 38935 ft 504 kts 35°
2026-05-05 23:48 23.48292 129.44630 38935 ft 504 kts 35°
2026-05-05 23:48 23.53390 129.48538 38935 ft 504 kts 35°
2026-05-05 23:49 23.58752 129.52652 38935 ft 504 kts 35°
2026-05-05 23:49 23.64070 129.56738 38935 ft 504 kts 35°
2026-05-05 23:50 23.69355 129.60802 38935 ft 504 kts 35°
2026-05-05 23:50 23.74686 129.64906 38935 ft 504 kts 35°
2026-05-05 23:51 23.80120 129.69093 38935 ft 504 kts 35°
2026-05-05 23:51 23.85542 129.73275 38935 ft 504 kts 35°
2026-05-05 23:52 23.90843 129.77369 38935 ft 504 kts 35°
2026-05-05 23:52 23.95589 129.81037 38935 ft 504 kts 35°
2026-05-05 23:53 24.01029 129.85246 38935 ft 504 kts 35°
2026-05-05 23:53 24.06215 129.89262 38935 ft 504 kts 35°
2026-05-05 23:54 24.11606 129.93430 38934 ft 504 kts 35°
2026-05-05 23:54 24.17327 129.97866 38935 ft 504 kts 35°
2026-05-05 23:55 24.22574 130.01948 38935 ft 504 kts 35°
2026-05-05 23:55 24.27562 130.05834 38935 ft 504 kts 35°
2026-05-05 23:56 24.33064 130.10121 38935 ft 504 kts 35°
2026-05-05 23:56 24.38291 130.14161 38935 ft 504 kts 34°
2026-05-05 23:57 24.43687 130.18202 38935 ft 504 kts 34°
2026-05-05 23:57 24.48856 130.22090 38935 ft 504 kts 34°
2026-05-05 23:58 24.54419 130.26289 38935 ft 504 kts 34°
2026-05-05 23:58 24.59635 130.30232 38935 ft 504 kts 34°
2026-05-05 23:59 24.64822 130.34153 38935 ft 504 kts 34°
2026-05-05 23:59 24.69367 130.37573 38935 ft 504 kts 34°
2026-05-06 00:00 24.75759 130.42403 38935 ft 504 kts 34°
2026-05-06 00:00 24.81048 130.46410 38934 ft 504 kts 34°
2026-05-06 00:01 24.86149 130.50279 38935 ft 504 kts 34°
2026-05-06 00:01 24.91683 130.54483 38935 ft 504 kts 34°
2026-05-06 00:02 24.96962 130.58522 39041 ft 506 kts 32°
2026-05-06 00:02 25.02278 130.62557 39143 ft 515 kts 30°
2026-05-06 00:03 25.07589 130.66595 39141 ft 525 kts 31°
2026-05-06 00:03 25.13289 130.70941 39142 ft 533 kts 31°
2026-05-06 00:04 25.18911 130.75235 39142 ft 538 kts 31°
2026-05-06 00:04 25.24412 130.79441 39141 ft 537 kts 31°
2026-05-06 00:05 25.31727 130.85042 39142 ft 536 kts 31°
2026-05-06 00:06 25.38323 130.90099 39142 ft 536 kts 31°
2026-05-06 00:06 25.44454 130.94807 39142 ft 536 kts 31°
2026-05-06 00:07 25.50030 130.99093 39142 ft 536 kts 31°
2026-05-06 00:07 25.54729 131.02708 39142 ft 536 kts 31°
2026-05-06 00:08 25.60546 131.07181 39142 ft 536 kts 31°
2026-05-06 00:08 25.66076 131.11438 39141 ft 536 kts 31°
2026-05-06 00:09 25.71375 131.15534 39142 ft 536 kts 31°
2026-05-06 00:09 25.76868 131.19788 39141 ft 536 kts 31°
2026-05-06 00:10 25.82175 131.23899 39142 ft 536 kts 31°
2026-05-06 00:10 25.87802 131.28427 39141 ft 537 kts 34°
2026-05-06 00:11 25.93599 131.33704 39141 ft 539 kts 36°
2026-05-06 00:11 25.98847 131.38531 39142 ft 539 kts 36°
2026-05-06 00:12 26.04424 131.43623 39142 ft 539 kts 36°
2026-05-06 00:12 26.09422 131.48178 39142 ft 539 kts 36°
2026-05-06 00:13 26.14595 131.52871 39142 ft 539 kts 35°
2026-05-06 00:13 26.19849 131.57629 39141 ft 539 kts 35°
2026-05-06 00:14 26.25231 131.62523 39142 ft 539 kts 36°
2026-05-06 00:14 26.30075 131.66936 39141 ft 539 kts 36°
2026-05-06 00:15 26.35223 131.71633 39142 ft 539 kts 36°
2026-05-06 00:15 26.40387 131.76352 39141 ft 539 kts 36°
2026-05-06 00:16 26.45547 131.81071 39142 ft 539 kts 36°
2026-05-06 00:16 26.50585 131.85686 39141 ft 539 kts 36°
2026-05-06 00:17 26.55577 131.90263 39142 ft 539 kts 36°
2026-05-06 00:17 26.60805 131.95063 39141 ft 539 kts 36°
2026-05-06 00:18 26.66034 131.99869 39142 ft 539 kts 36°
2026-05-06 00:18 26.71071 132.04505 39141 ft 539 kts 36°
2026-05-06 00:19 26.76317 132.09339 39142 ft 539 kts 36°
2026-05-06 00:19 26.81614 132.14225 39142 ft 539 kts 36°
2026-05-06 00:20 26.86469 132.18710 39141 ft 539 kts 36°
2026-05-06 00:20 26.91846 132.23682 39142 ft 539 kts 36°
2026-05-06 00:21 26.96969 132.28426 39141 ft 539 kts 36°
2026-05-06 00:21 27.02544 132.33594 39141 ft 539 kts 36°
2026-05-06 00:22 27.07498 132.38193 39142 ft 539 kts 36°
2026-05-06 00:22 27.12774 132.43096 39141 ft 539 kts 36°
2026-05-06 00:23 27.17755 132.47732 39142 ft 539 kts 36°
2026-05-06 00:23 27.22868 132.52495 39141 ft 539 kts 36°
2026-05-06 00:24 27.28034 132.57315 39142 ft 539 kts 36°
2026-05-06 00:24 27.33659 132.62569 39142 ft 539 kts 36°
2026-05-06 00:25 27.38616 132.67205 39141 ft 539 kts 36°
2026-05-06 00:25 27.43833 132.72091 39142 ft 539 kts 36°
2026-05-06 00:26 27.48806 132.76754 39141 ft 539 kts 36°
2026-05-06 00:26 27.54146 132.81766 39142 ft 539 kts 36°
2026-05-06 00:27 27.58941 132.86274 39141 ft 539 kts 36°
2026-05-06 00:27 27.63878 132.90916 39141 ft 539 kts 36°
2026-05-06 00:28 27.68741 132.95478 39142 ft 539 kts 36°
2026-05-06 00:28 27.73808 133.00264 39141 ft 539 kts 36°
2026-05-06 00:29 27.78481 133.04686 39142 ft 539 kts 36°
2026-05-06 00:29 27.83698 133.09628 39141 ft 539 kts 36°
2026-05-06 00:30 27.88861 133.14523 39141 ft 540 kts 36°
2026-05-06 00:30 27.93698 133.19139 39142 ft 540 kts 37°
2026-05-06 00:31 27.98444 133.23679 39141 ft 540 kts 37°
2026-05-06 00:31 28.03767 133.28779 39142 ft 540 kts 37°
2026-05-06 00:32 28.08414 133.33238 39141 ft 540 kts 37°
2026-05-06 00:32 28.13712 133.38325 39142 ft 540 kts 37°
2026-05-06 00:33 28.18679 133.43068 39141 ft 540 kts 36°
2026-05-06 00:33 28.23888 133.48062 39142 ft 540 kts 37°
2026-05-06 00:34 28.28253 133.52260 39141 ft 540 kts 37°
2026-05-06 00:34 28.33298 133.57120 39142 ft 540 kts 37°
2026-05-06 00:35 28.38629 133.62237 39141 ft 540 kts 37°
2026-05-06 00:35 28.43360 133.66811 39142 ft 540 kts 37°
2026-05-06 00:36 28.48251 133.71551 39142 ft 540 kts 37°
2026-05-06 00:36 28.53963 133.77092 39141 ft 540 kts 37°
2026-05-06 00:37 28.59411 133.82382 39141 ft 540 kts 37°
2026-05-06 00:37 28.64723 133.87548 39141 ft 540 kts 37°
2026-05-06 00:38 28.69687 133.92391 39141 ft 540 kts 37°
2026-05-06 00:38 28.74541 133.97135 39142 ft 540 kts 37°
2026-05-06 00:39 28.79972 134.02451 39141 ft 540 kts 37°
2026-05-06 00:39 28.84740 134.07122 39141 ft 540 kts 37°
2026-05-06 00:40 28.90248 134.12479 39142 ft 540 kts 37°
2026-05-06 00:40 28.95418 134.17534 39141 ft 540 kts 37°
2026-05-06 00:41 29.00277 134.22298 39142 ft 540 kts 37°
2026-05-06 00:41 29.04803 134.26744 39141 ft 540 kts 37°
2026-05-06 00:42 29.09907 134.31766 39142 ft 540 kts 37°
2026-05-06 00:42 29.15234 134.37015 39141 ft 540 kts 37°
2026-05-06 00:43 29.20356 134.42068 39142 ft 540 kts 37°
2026-05-06 00:43 29.25653 134.47301 39142 ft 540 kts 37°
2026-05-06 00:44 29.31336 134.52925 39142 ft 540 kts 37°
2026-05-06 00:44 29.36112 134.57658 39141 ft 540 kts 37°
2026-05-06 00:45 29.41272 134.62777 39142 ft 540 kts 37°
2026-05-06 00:45 29.46365 134.67839 39141 ft 540 kts 37°
2026-05-06 00:46 29.51653 134.73100 39142 ft 540 kts 37°
2026-05-06 00:46 29.56705 134.78134 39142 ft 540 kts 37°
2026-05-06 00:47 29.61430 134.82848 39142 ft 540 kts 37°
2026-05-06 00:47 29.67168 134.88582 39142 ft 540 kts 37°
2026-05-06 00:48 29.72843 134.94261 39142 ft 540 kts 37°
2026-05-06 00:48 29.78505 134.99936 39142 ft 540 kts 37°
2026-05-06 00:49 29.84175 135.05629 39142 ft 540 kts 37°
2026-05-06 00:49 29.89637 135.11107 39142 ft 540 kts 37°
2026-05-06 00:50 29.94850 135.16342 39141 ft 540 kts 37°
2026-05-06 00:50 30.00326 135.21873 39141 ft 540 kts 38°
2026-05-06 00:51 30.05853 135.27467 39141 ft 540 kts 38°
2026-05-06 00:51 30.11506 135.33190 39141 ft 540 kts 38°
2026-05-06 00:52 30.17194 135.38860 39142 ft 540 kts 37°
2026-05-06 00:52 30.22916 135.44500 39142 ft 540 kts 37°
2026-05-06 00:53 30.28331 135.49862 39142 ft 540 kts 37°
2026-05-06 00:53 30.34032 135.55522 39142 ft 540 kts 37°
2026-05-06 00:54 30.39732 135.61183 39142 ft 540 kts 37°
2026-05-06 00:54 30.45385 135.66766 39142 ft 540 kts 37°
2026-05-06 00:55 30.51091 135.72433 39142 ft 540 kts 37°
2026-05-06 00:55 30.56389 135.77711 39142 ft 540 kts 37°
2026-05-06 00:56 30.61692 135.83004 39142 ft 540 kts 37°
2026-05-06 00:56 30.67104 135.88415 39142 ft 540 kts 37°
2026-05-06 00:57 30.72571 135.93890 39142 ft 540 kts 37°
2026-05-06 00:57 30.78089 135.99424 39142 ft 540 kts 37°
2026-05-06 00:58 30.83372 136.04731 39141 ft 540 kts 37°
2026-05-06 00:58 30.88075 136.09462 39141 ft 540 kts 37°
2026-05-06 00:59 30.93388 136.14814 39142 ft 540 kts 37°
2026-05-06 00:59 30.98878 136.20353 39141 ft 540 kts 37°
2026-05-06 01:00 31.03950 136.25479 39142 ft 540 kts 37°
2026-05-06 01:00 31.08841 136.30428 39141 ft 540 kts 37°
2026-05-06 01:01 31.13810 136.35464 39142 ft 540 kts 37°
2026-05-06 01:01 31.19177 136.40909 39142 ft 540 kts 37°
2026-05-06 01:02 31.23986 136.45768 39141 ft 540 kts 37°
2026-05-06 01:02 31.29235 136.51118 39142 ft 540 kts 37°
2026-05-06 01:03 31.34053 136.56042 39141 ft 540 kts 37°
2026-05-06 01:03 31.39247 136.61353 39142 ft 540 kts 37°
2026-05-06 01:04 31.44374 136.66604 39142 ft 540 kts 38°
2026-05-06 01:04 31.49027 136.71380 39141 ft 540 kts 38°
2026-05-06 01:05 31.53984 136.76486 39142 ft 540 kts 38°
2026-05-06 01:05 31.59268 136.81939 39142 ft 540 kts 38°
2026-05-06 01:06 31.64257 136.87098 39141 ft 540 kts 38°
2026-05-06 01:06 31.69415 136.92434 39142 ft 540 kts 38°
2026-05-06 01:07 31.74603 136.97756 39141 ft 540 kts 38°
2026-05-06 01:07 31.79385 137.02695 39142 ft 540 kts 38°
2026-05-06 01:08 31.84474 137.07968 39141 ft 540 kts 38°
2026-05-06 01:08 31.89542 137.13230 39142 ft 540 kts 38°
2026-05-06 01:09 31.94203 137.18076 39142 ft 540 kts 38°
2026-05-06 01:09 31.99147 137.23227 39141 ft 540 kts 38°
2026-05-06 01:10 32.04142 137.28438 39142 ft 540 kts 38°
2026-05-06 01:10 32.09410 137.33942 39142 ft 540 kts 38°
2026-05-06 01:11 32.14386 137.39149 39141 ft 540 kts 38°
2026-05-06 01:11 32.19260 137.44257 39142 ft 540 kts 38°
2026-05-06 01:12 32.24469 137.49724 39141 ft 540 kts 38°
2026-05-06 01:12 32.29356 137.54861 39142 ft 540 kts 38°
2026-05-06 01:13 32.34328 137.60097 39141 ft 540 kts 38°
2026-05-06 01:13 32.39181 137.65214 39142 ft 540 kts 38°
2026-05-06 01:14 32.46658 137.73114 39142 ft 540 kts 38°
2026-05-06 01:14 32.51808 137.78566 39141 ft 541 kts 38°
2026-05-06 01:15 32.56687 137.83738 39141 ft 541 kts 38°
2026-05-06 01:15 32.61960 137.89338 39142 ft 541 kts 38°
2026-05-06 01:16 32.66952 137.94619 39231 ft 545 kts 38°
2026-05-06 01:16 32.71850 137.99835 39261 ft 550 kts 38°
2026-05-06 01:17 32.76635 138.04951 39260 ft 551 kts 38°
2026-05-06 01:17 32.82009 138.10707 39260 ft 550 kts 38°
2026-05-06 01:18 32.87095 138.16155 39259 ft 550 kts 38°
2026-05-06 01:18 32.92184 138.21879 39260 ft 551 kts 41°
2026-05-06 01:19 32.97280 138.27792 39260 ft 551 kts 41°
2026-05-06 01:19 33.02511 138.33839 39259 ft 551 kts 41°
2026-05-06 01:20 33.07321 138.39397 39260 ft 551 kts 41°
2026-05-06 01:20 33.12468 138.45350 39260 ft 551 kts 40°
2026-05-06 01:21 33.17818 138.51486 39260 ft 551 kts 40°
2026-05-06 01:21 33.23331 138.57854 39260 ft 551 kts 41°
2026-05-06 01:22 33.28451 138.63788 39259 ft 551 kts 41°
2026-05-06 01:22 33.33540 138.69700 39260 ft 551 kts 41°
2026-05-06 01:23 33.38288 138.75224 39260 ft 551 kts 41°
2026-05-06 01:23 33.42813 138.80464 39259 ft 551 kts 41°
2026-05-06 01:24 33.48080 138.86616 39260 ft 551 kts 41°
2026-05-06 01:24 33.53177 138.92592 39260 ft 551 kts 41°
2026-05-06 01:25 33.58101 138.98372 39259 ft 551 kts 41°
2026-05-06 01:25 33.63585 139.04810 39260 ft 551 kts 41°
2026-05-06 01:26 33.69072 139.11240 39260 ft 551 kts 41°
2026-05-06 01:26 33.73794 139.16790 39259 ft 551 kts 41°
2026-05-06 01:27 33.78886 139.22787 39260 ft 551 kts 41°
2026-05-06 01:27 33.83895 139.28694 39260 ft 551 kts 41°
2026-05-06 01:28 33.88926 139.34552 39260 ft 551 kts 41°
2026-05-06 01:28 33.93880 139.40403 39260 ft 551 kts 41°
2026-05-06 01:29 33.98553 139.45946 39260 ft 552 kts 41°
2026-05-06 01:29 34.03595 139.51933 39259 ft 552 kts 41°
2026-05-06 01:30 34.08402 139.57920 39258 ft 553 kts 46°
2026-05-06 01:30 34.12713 139.64445 39260 ft 543 kts 49°
2026-05-06 01:31 34.16543 139.70267 39259 ft 537 kts 48°
2026-05-06 01:31 34.20817 139.76716 39259 ft 532 kts 49°
2026-05-06 01:32 34.24662 139.82546 39260 ft 532 kts 49°
2026-05-06 01:32 34.28894 139.88976 39260 ft 533 kts 49°
2026-05-06 01:33 34.32845 139.94979 39259 ft 533 kts 49°
2026-05-06 01:33 34.36793 140.00979 39260 ft 533 kts 49°
2026-05-06 01:34 34.41161 140.07645 39260 ft 533 kts 49°
2026-05-06 01:34 34.44335 140.12500 39260 ft 533 kts 49°
2026-05-06 01:35 34.48814 140.20283 39260 ft 535 kts 56°
2026-05-06 01:35 34.51885 140.26398 39260 ft 535 kts 56°
2026-05-06 01:36 34.55199 140.32912 39260 ft 536 kts 56°
2026-05-06 01:36 34.59038 140.40300 39260 ft 536 kts 56°
2026-05-06 01:37 34.62616 140.47258 39259 ft 535 kts 56°
2026-05-06 01:37 34.66218 140.54305 39260 ft 535 kts 56°
2026-05-06 01:38 34.69813 140.61350 39259 ft 535 kts 56°
2026-05-06 01:38 34.73144 140.67881 39260 ft 536 kts 56°
2026-05-06 01:39 34.76511 140.74503 39260 ft 535 kts 56°
2026-05-06 01:39 34.80089 140.81539 39260 ft 535 kts 56°
2026-05-06 01:40 34.83561 140.88373 39259 ft 535 kts 56°
2026-05-06 01:40 34.87069 140.95279 39260 ft 536 kts 56°
2026-05-06 01:41 34.90175 141.01397 39259 ft 536 kts 56°
2026-05-06 01:41 34.93788 141.08514 39260 ft 536 kts 56°
2026-05-06 01:42 34.97281 141.15399 39260 ft 535 kts 56°
2026-05-06 01:42 35.00764 141.22267 39259 ft 536 kts 56°
2026-05-06 01:43 35.04220 141.29086 39260 ft 535 kts 56°
2026-05-06 01:43 35.07889 141.36328 39260 ft 535 kts 56°
2026-05-06 01:44 35.11224 141.42913 39259 ft 536 kts 56°
2026-05-06 01:44 35.14771 141.49919 39260 ft 535 kts 56°
2026-05-06 01:45 35.18228 141.56750 39260 ft 535 kts 56°
2026-05-06 01:45 35.22002 141.64213 39259 ft 535 kts 56°
2026-05-06 01:46 35.25464 141.71061 39260 ft 535 kts 56°
2026-05-06 01:46 35.28827 141.77715 39260 ft 535 kts 56°
2026-05-06 01:47 35.32343 141.84675 39260 ft 535 kts 56°
2026-05-06 01:47 35.35756 141.91435 39259 ft 536 kts 56°
2026-05-06 01:48 35.38952 141.97766 39260 ft 535 kts 56°
2026-05-06 01:48 35.42634 142.05065 39259 ft 535 kts 56°
2026-05-06 01:49 35.46045 142.11828 39260 ft 535 kts 56°
2026-05-06 01:49 35.49613 142.18907 39259 ft 535 kts 56°
2026-05-06 01:50 35.53055 142.25739 39260 ft 535 kts 56°
2026-05-06 01:50 35.56759 142.33093 39260 ft 535 kts 56°
2026-05-06 01:51 35.60074 142.39679 39259 ft 535 kts 56°
2026-05-06 01:51 35.63994 142.47469 39259 ft 535 kts 56°
2026-05-06 01:52 35.67912 142.55260 39260 ft 535 kts 56°
2026-05-06 01:52 35.71308 142.62015 39260 ft 535 kts 56°
2026-05-06 01:53 35.74913 142.69190 39259 ft 536 kts 56°
2026-05-06 01:53 35.78386 142.76105 39260 ft 535 kts 56°
2026-05-06 01:54 35.81749 142.82802 39260 ft 535 kts 56°
2026-05-06 01:54 35.85195 142.89669 39260 ft 535 kts 56°
2026-05-06 01:55 35.88500 142.96259 39259 ft 535 kts 56°
2026-05-06 01:55 35.92062 143.03364 39260 ft 535 kts 56°
2026-05-06 01:56 35.95982 143.11186 39260 ft 535 kts 56°
2026-05-06 01:56 35.99901 143.19009 39260 ft 535 kts 56°
2026-05-06 01:57 36.03550 143.26297 39259 ft 536 kts 56°
2026-05-06 01:57 36.07404 143.33999 39260 ft 535 kts 56°
2026-05-06 01:58 36.10797 143.40781 39259 ft 535 kts 56°
2026-05-06 01:58 36.14245 143.47678 39260 ft 535 kts 56°
2026-05-06 01:59 36.17541 143.54274 39259 ft 535 kts 56°
2026-05-06 01:59 36.21377 143.61953 39260 ft 535 kts 56°
2026-05-06 02:00 36.24169 143.67545 39259 ft 535 kts 56°
2026-05-06 02:00 36.27711 143.74641 39260 ft 535 kts 56°
2026-05-06 02:01 36.31085 143.81404 39259 ft 536 kts 56°
2026-05-06 02:01 36.34533 143.88318 39260 ft 536 kts 56°
2026-05-06 02:02 36.37878 143.95029 39259 ft 536 kts 56°
2026-05-06 02:02 36.41625 144.02547 39260 ft 536 kts 56°
2026-05-06 02:03 36.45077 144.09479 39260 ft 536 kts 56°
2026-05-06 02:03 36.48366 144.16086 39260 ft 536 kts 56°
2026-05-06 02:04 36.52248 144.23888 39260 ft 536 kts 56°
2026-05-06 02:04 36.55678 144.30784 39259 ft 536 kts 56°
2026-05-06 02:05 36.59309 144.38088 39259 ft 536 kts 56°
2026-05-06 02:05 36.62752 144.45017 39260 ft 536 kts 56°
2026-05-06 02:06 36.66400 144.52363 39259 ft 536 kts 56°
2026-05-06 02:06 36.69811 144.59233 39259 ft 536 kts 56°
2026-05-06 02:07 36.73313 144.66290 39260 ft 536 kts 56°
2026-05-06 02:07 36.76907 144.73536 39260 ft 536 kts 56°
2026-05-06 02:08 36.79976 144.79726 39260 ft 536 kts 56°
2026-05-06 02:08 36.83443 144.86722 39260 ft 536 kts 56°
2026-05-06 02:09 36.87032 144.93967 39260 ft 536 kts 56°
2026-05-06 02:09 36.90497 145.00967 39260 ft 536 kts 56°
2026-05-06 02:10 36.93992 145.08029 39260 ft 536 kts 56°
2026-05-06 02:10 36.97368 145.14853 39260 ft 536 kts 56°
2026-05-06 02:11 37.00978 145.22154 39260 ft 536 kts 56°
2026-05-06 02:11 37.04356 145.28989 39260 ft 536 kts 56°
2026-05-06 02:12 37.07758 145.35877 39260 ft 536 kts 56°
2026-05-06 02:12 37.11478 145.43410 39259 ft 536 kts 56°
2026-05-06 02:13 37.14862 145.50268 39260 ft 536 kts 56°
2026-05-06 02:13 37.18176 145.56986 39259 ft 536 kts 56°
2026-05-06 02:14 37.21767 145.64267 39260 ft 536 kts 56°
2026-05-06 02:14 37.25283 145.71402 39259 ft 536 kts 56°
2026-05-06 02:15 37.28584 145.78103 39260 ft 536 kts 56°
2026-05-06 02:15 37.32122 145.85287 39260 ft 536 kts 56°
2026-05-06 02:16 37.35770 145.92700 39260 ft 536 kts 56°
2026-05-06 02:16 37.39325 145.99927 39260 ft 536 kts 56°
2026-05-06 02:17 37.42796 146.06985 39259 ft 536 kts 56°
2026-05-06 02:17 37.46236 146.13985 39260 ft 536 kts 56°
2026-05-06 02:18 37.49845 146.21332 39260 ft 536 kts 56°
2026-05-06 02:18 37.53158 146.28079 39260 ft 536 kts 56°
2026-05-06 02:19 37.56582 146.35054 39260 ft 536 kts 56°
2026-05-06 02:19 37.59984 146.41990 39260 ft 536 kts 56°
2026-05-06 02:20 37.64989 146.52197 39260 ft 536 kts 56°
2026-05-06 02:21 37.68384 146.59125 39260 ft 536 kts 56°
2026-05-06 02:21 37.71389 146.65261 39260 ft 536 kts 56°
2026-05-06 02:22 37.75315 146.73280 39260 ft 536 kts 56°
2026-05-06 02:22 37.79243 146.81309 39260 ft 536 kts 56°
2026-05-06 02:23 37.82519 146.88007 39260 ft 536 kts 56°
2026-05-06 02:23 37.85848 146.94815 39260 ft 536 kts 56°
2026-05-06 02:24 37.89371 147.02025 39260 ft 536 kts 56°
2026-05-06 02:24 37.92715 147.08873 39260 ft 536 kts 56°
2026-05-06 02:25 37.96102 147.15811 39259 ft 536 kts 56°
2026-05-06 02:25 38.00021 147.23843 39260 ft 536 kts 56°
2026-05-06 02:26 38.03671 147.31327 39260 ft 536 kts 56°
2026-05-06 02:26 38.07345 147.38865 39260 ft 536 kts 56°
2026-05-06 02:27 38.10839 147.46035 39260 ft 536 kts 56°
2026-05-06 02:27 38.14525 147.53606 39260 ft 536 kts 56°
2026-05-06 02:28 38.17737 147.60205 39260 ft 536 kts 56°
2026-05-06 02:28 38.21200 147.67324 39260 ft 536 kts 56°
2026-05-06 02:29 38.24835 147.74797 39259 ft 536 kts 56°
2026-05-06 02:29 38.28074 147.81462 39260 ft 536 kts 56°
2026-05-06 02:30 38.31289 147.88079 39260 ft 536 kts 56°
2026-05-06 02:30 38.34871 147.95456 39260 ft 536 kts 56°
2026-05-06 02:31 38.38085 148.02077 39260 ft 536 kts 56°
2026-05-06 02:31 38.41164 148.08425 39260 ft 536 kts 56°
2026-05-06 02:32 38.44686 148.15686 39259 ft 536 kts 56°
2026-05-06 02:32 38.45940 148.18273 39260 ft 536 kts 56°
2026-05-06 02:33 38.50397 148.25846 39259 ft 532 kts 42°
2026-05-06 02:33 38.52193 148.27964 39260 ft 530 kts 37°
2026-05-06 02:34 38.63171 148.33368 39244 ft 491 kts 351°
2026-05-06 02:34 38.66415 148.32624 39237 ft 460 kts 335°
2026-05-06 02:34 38.69178 148.30886 39223 ft 428 kts 318°
2026-05-06 02:34 38.71279 148.28326 39224 ft 413 kts 301°
2026-05-06 02:35 38.72616 148.25107 39230 ft 410 kts 284°
2026-05-06 02:35 38.73072 148.21517 39235 ft 411 kts 267°
2026-05-06 02:35 38.72617 148.17893 39239 ft 418 kts 253°
2026-05-06 02:36 38.70164 148.11009 39224 ft 433 kts 245°
2026-05-06 02:36 38.67433 148.04153 39222 ft 421 kts 244°
2026-05-06 02:36 38.66124 148.00879 39216 ft 406 kts 245°
2026-05-06 02:37 38.64856 147.97706 39215 ft 400 kts 245°
2026-05-06 02:37 38.62273 147.91252 39217 ft 416 kts 244°
2026-05-06 02:38 38.59583 147.84541 39219 ft 431 kts 244°
2026-05-06 02:38 38.56835 147.77696 39219 ft 427 kts 244°
2026-05-06 02:38 38.55503 147.74384 39213 ft 411 kts 244°
2026-05-06 02:39 38.54217 147.71189 39209 ft 398 kts 244°
2026-05-06 02:39 38.51639 147.64795 39212 ft 413 kts 244°
2026-05-06 02:40 38.48973 147.58196 39216 ft 428 kts 244°
2026-05-06 02:40 38.46205 147.51361 39216 ft 431 kts 244°
2026-05-06 02:40 38.44850 147.48020 39212 ft 417 kts 244°
2026-05-06 02:41 38.43540 147.44793 39205 ft 402 kts 244°
2026-05-06 02:41 38.40961 147.38449 39208 ft 410 kts 244°
2026-05-06 02:42 38.38280 147.31870 39211 ft 426 kts 244°
2026-05-06 02:42 38.35504 147.25072 39212 ft 434 kts 244°
2026-05-06 02:42 38.34127 147.21705 39209 ft 422 kts 244°
2026-05-06 02:43 38.32794 147.18450 39203 ft 407 kts 244°
2026-05-06 02:43 38.30205 147.12135 39203 ft 408 kts 244°
2026-05-06 02:44 38.27525 147.05612 39208 ft 424 kts 244°
2026-05-06 02:44 38.24745 146.98861 39211 ft 436 kts 244°
2026-05-06 02:45 38.21988 146.92181 39203 ft 412 kts 244°
2026-05-06 02:45 38.20680 146.89015 39197 ft 398 kts 244°
2026-05-06 02:45 38.19400 146.85923 39200 ft 405 kts 244°
2026-05-06 02:46 38.16726 146.79467 39205 ft 421 kts 244°
2026-05-06 02:46 38.13945 146.72770 39208 ft 435 kts 244°
2026-05-06 02:47 38.11153 146.66060 39202 ft 417 kts 244°
2026-05-06 02:47 38.09820 146.62862 39196 ft 402 kts 244°
2026-05-06 02:47 38.08519 146.59742 39196 ft 402 kts 244°
2026-05-06 02:48 38.05844 146.53340 39201 ft 419 kts 244°
2026-05-06 02:48 38.03063 146.46698 39206 ft 434 kts 244°
2026-05-06 02:49 38.00241 146.39971 39202 ft 422 kts 244°
2026-05-06 02:49 37.98885 146.36746 39195 ft 406 kts 244°
2026-05-06 02:49 37.97575 146.33630 39194 ft 400 kts 244°
2026-05-06 02:50 37.95185 146.27956 39198 ft 415 kts 244°
2026-05-06 02:50 37.92621 146.21881 39204 ft 429 kts 244°
2026-05-06 02:51 37.90127 146.15981 39205 ft 434 kts 243°
2026-05-06 02:51 37.87588 146.09988 39195 ft 408 kts 244°
2026-05-06 02:52 37.85301 146.04598 39194 ft 405 kts 244°
2026-05-06 02:52 37.83097 145.99412 39197 ft 418 kts 243°
2026-05-06 02:53 37.80555 145.93444 39202 ft 432 kts 243°
2026-05-06 02:53 37.77691 145.86730 39199 ft 425 kts 243°
2026-05-06 02:53 37.76312 145.83502 39193 ft 410 kts 243°
2026-05-06 02:54 37.75251 145.81023 39188 ft 398 kts 243°
2026-05-06 02:54 37.72707 145.75082 39193 ft 411 kts 243°
2026-05-06 02:55 37.70490 145.69915 39197 ft 424 kts 243°
2026-05-06 02:55 37.68071 145.64285 39199 ft 436 kts 243°
2026-05-06 02:56 37.65597 145.58537 39196 ft 422 kts 243°
2026-05-06 02:56 37.64375 145.55703 39189 ft 408 kts 243°
2026-05-06 02:56 37.63395 145.53431 39185 ft 398 kts 243°
2026-05-06 02:57 37.60698 145.47188 39190 ft 413 kts 243°
2026-05-06 02:57 37.57890 145.40700 39196 ft 429 kts 243°
2026-05-06 02:58 37.54995 145.34025 39196 ft 431 kts 243°
2026-05-06 02:58 37.53577 145.30761 39190 ft 416 kts 243°
2026-05-06 02:58 37.52230 145.27663 39141 ft 402 kts 243°
2026-05-06 02:58 37.50902 145.24612 38998 ft 393 kts 243°
2026-05-06 02:59 37.49580 145.21576 39095 ft 399 kts 243°
2026-05-06 02:59 37.46867 145.15357 39237 ft 412 kts 243°
2026-05-06 03:00 37.44052 145.08918 39261 ft 427 kts 243°
2026-05-06 03:00 37.41131 145.02251 39260 ft 441 kts 243°
2026-05-06 03:01 37.38139 144.95433 39261 ft 448 kts 243°
2026-05-06 03:01 37.35119 144.88569 39260 ft 448 kts 243°
2026-05-06 03:02 37.32102 144.81723 39260 ft 447 kts 243°
2026-05-06 03:02 37.29087 144.74898 39260 ft 447 kts 243°
2026-05-06 03:03 37.26067 144.68075 39260 ft 447 kts 243°
2026-05-06 03:03 37.23042 144.61254 39260 ft 447 kts 243°
2026-05-06 03:04 37.20010 144.54434 39260 ft 447 kts 243°
2026-05-06 03:04 37.17490 144.48774 39260 ft 447 kts 243°
2026-05-06 03:05 37.14455 144.41974 39260 ft 447 kts 243°
2026-05-06 03:05 37.11412 144.35166 39260 ft 447 kts 242°
2026-05-06 03:06 37.08368 144.28373 39260 ft 447 kts 242°
2026-05-06 03:06 37.05321 144.21587 39260 ft 447 kts 242°
2026-05-06 03:07 37.02267 144.14798 39260 ft 447 kts 242°
2026-05-06 03:07 36.99210 144.08019 39260 ft 447 kts 242°
2026-05-06 03:08 36.96150 144.01245 39260 ft 447 kts 242°
2026-05-06 03:08 36.93086 143.94476 39260 ft 447 kts 242°
2026-05-06 03:09 36.90017 143.87711 39260 ft 447 kts 242°
2026-05-06 03:09 36.86945 143.80952 39260 ft 447 kts 242°
2026-05-06 03:10 36.83885 143.74234 38700 ft 440 kts 242°
2026-05-06 03:10 36.82379 143.70934 38152 ft 434 kts 242°
2026-05-06 03:10 36.80892 143.67677 37620 ft 428 kts 243°
2026-05-06 03:10 36.79432 143.64482 37096 ft 422 kts 243°
2026-05-06 03:11 36.78005 143.61363 36874 ft 418 kts 243°
2026-05-06 03:11 36.76561 143.58211 36773 ft 418 kts 243°
2026-05-06 03:11 36.75100 143.55022 36672 ft 417 kts 243°
2026-05-06 03:12 36.72224 143.48757 36471 ft 415 kts 243°
2026-05-06 03:12 36.69384 143.42582 36272 ft 412 kts 243°
2026-05-06 03:12 36.67960 143.39489 36171 ft 411 kts 243°
2026-05-06 03:13 36.66537 143.36402 36071 ft 410 kts 243°
2026-05-06 03:13 36.65120 143.33330 35970 ft 409 kts 243°
2026-05-06 03:13 36.63706 143.30268 35870 ft 407 kts 243°
2026-05-06 03:14 36.60888 143.24175 35670 ft 405 kts 243°
2026-05-06 03:14 36.59485 143.21146 35569 ft 404 kts 243°
2026-05-06 03:14 36.58084 143.18122 35469 ft 402 kts 243°
2026-05-06 03:15 36.55293 143.12109 35268 ft 400 kts 243°
2026-05-06 03:15 36.52518 143.06140 35068 ft 397 kts 243°
2026-05-06 03:15 36.51136 143.03172 34967 ft 396 kts 243°
2026-05-06 03:16 36.49760 143.00219 34867 ft 395 kts 243°
2026-05-06 03:16 36.47015 142.94334 34666 ft 392 kts 243°
2026-05-06 03:17 36.44287 142.88498 34466 ft 390 kts 243°
2026-05-06 03:17 36.42924 142.85584 34365 ft 389 kts 243°
2026-05-06 03:17 36.41568 142.82691 34265 ft 387 kts 243°
2026-05-06 03:18 36.38866 142.76929 34065 ft 385 kts 243°
2026-05-06 03:18 36.37519 142.74061 33964 ft 384 kts 243°
2026-05-06 03:18 36.36179 142.71208 33864 ft 383 kts 243°
2026-05-06 03:19 36.33523 142.65565 33665 ft 380 kts 243°
2026-05-06 03:19 36.30863 142.59922 33464 ft 378 kts 243°
2026-05-06 03:20 36.26903 142.51537 33164 ft 374 kts 243°
2026-05-06 03:20 36.25588 142.48757 33063 ft 373 kts 243°
2026-05-06 03:20 36.24279 142.45992 32963 ft 372 kts 243°
2026-05-06 03:21 36.21937 142.41051 32783 ft 370 kts 243°
2026-05-06 03:21 36.20553 142.38136 32676 ft 368 kts 243°
2026-05-06 03:21 36.19258 142.35408 32576 ft 367 kts 243°
2026-05-06 03:22 36.16677 142.29979 32375 ft 365 kts 243°
2026-05-06 03:22 36.14338 142.25066 32193 ft 362 kts 244°
2026-05-06 03:23 36.12074 142.20318 32015 ft 360 kts 244°
2026-05-06 03:23 36.09685 142.15315 31826 ft 358 kts 244°
2026-05-06 03:24 36.07694 142.11150 31669 ft 356 kts 244°
2026-05-06 03:24 36.05337 142.06226 31481 ft 354 kts 244°
2026-05-06 03:25 36.03151 142.01666 31305 ft 352 kts 244°
2026-05-06 03:25 36.00769 141.96707 31024 ft 330 kts 245°
2026-05-06 03:26 35.99624 141.94320 30629 ft 316 kts 245°
2026-05-06 03:26 35.98518 141.92018 30080 ft 307 kts 245°
2026-05-06 03:26 35.97439 141.89773 29393 ft 302 kts 245°
2026-05-06 03:26 35.96374 141.87560 28658 ft 299 kts 245°
2026-05-06 03:27 35.95320 141.85369 27950 ft 295 kts 245°
2026-05-06 03:27 35.94292 141.83237 27274 ft 291 kts 244°
2026-05-06 03:27 35.93278 141.81101 26577 ft 286 kts 245°
2026-05-06 03:27 35.92320 141.78968 25881 ft 283 kts 245°
2026-05-06 03:28 35.91362 141.76863 25168 ft 280 kts 244°
2026-05-06 03:28 35.90398 141.74794 24474 ft 277 kts 243°
2026-05-06 03:28 35.89432 141.72758 23778 ft 274 kts 243°
2026-05-06 03:28 35.88464 141.70732 22986 ft 274 kts 243°
2026-05-06 03:29 35.87496 141.68714 22248 ft 273 kts 242°
2026-05-06 03:29 35.86530 141.66706 21506 ft 272 kts 242°
2026-05-06 03:29 35.85565 141.64702 20763 ft 272 kts 241°
2026-05-06 03:29 35.84603 141.62704 20019 ft 271 kts 241°
2026-05-06 03:30 35.83641 141.60704 19299 ft 271 kts 241°
2026-05-06 03:30 35.82682 141.58708 18591 ft 270 kts 240°
2026-05-06 03:30 35.81711 141.56686 17578 ft 279 kts 240°
2026-05-06 03:30 35.80711 141.54601 16751 ft 284 kts 239°
2026-05-06 03:31 35.79689 141.52475 15800 ft 297 kts 238°
2026-05-06 03:31 35.78619 141.50231 15069 ft 306 kts 238°
2026-05-06 03:31 35.77539 141.47993 14655 ft 304 kts 236°
2026-05-06 03:31 35.76253 141.45944 14021 ft 309 kts 229°
2026-05-06 03:32 35.74808 141.43989 13628 ft 307 kts 226°
2026-05-06 03:32 35.73320 141.42136 13321 ft 302 kts 224°
2026-05-06 03:32 35.71813 141.40327 12837 ft 303 kts 224°
2026-05-06 03:32 35.70373 141.38463 12481 ft 300 kts 232°
2026-05-06 03:33 35.69407 141.36189 12028 ft 302 kts 246°
2026-05-06 03:33 35.68874 141.33694 11648 ft 301 kts 255°
2026-05-06 03:33 35.68451 141.31167 11169 ft 302 kts 256°
2026-05-06 03:33 35.68060 141.28634 10801 ft 300 kts 256°
2026-05-06 03:34 35.67675 141.26124 10386 ft 299 kts 256°
2026-05-06 03:34 35.67284 141.23602 9939 ft 299 kts 256°
2026-05-06 03:34 35.66895 141.21110 9605 ft 296 kts 255°
2026-05-06 03:34 35.66504 141.18618 9200 ft 295 kts 255°
2026-05-06 03:35 35.66116 141.16147 8815 ft 294 kts 255°
2026-05-06 03:35 35.65778 141.13681 8455 ft 293 kts 259°
2026-05-06 03:35 35.65654 141.11180 8060 ft 294 kts 265°
2026-05-06 03:35 35.65670 141.08673 7700 ft 292 kts 268°
2026-05-06 03:36 35.65724 141.06184 7339 ft 290 kts 267°
2026-05-06 03:36 35.65749 141.03705 6969 ft 289 kts 266°
2026-05-06 03:36 35.65759 141.01275 6635 ft 288 kts 266°
2026-05-06 03:36 35.65953 140.98836 6414 ft 289 kts 280°
2026-05-06 03:37 35.66639 140.96504 6277 ft 291 kts 290°
2026-05-06 03:37 35.67515 140.94310 6265 ft 278 kts 294°
2026-05-06 03:37 35.68439 140.92296 6267 ft 263 kts 297°
2026-05-06 03:37 35.69359 140.90407 6272 ft 254 kts 297°
2026-05-06 03:38 35.70265 140.88557 6275 ft 251 kts 297°
2026-05-06 03:38 35.71156 140.86719 6275 ft 250 kts 297°
2026-05-06 03:38 35.72044 140.84877 6260 ft 251 kts 297°
2026-05-06 03:38 35.72932 140.83025 6238 ft 252 kts 297°
2026-05-06 03:39 35.73816 140.81174 6212 ft 252 kts 297°
2026-05-06 03:39 35.74704 140.79312 6165 ft 252 kts 297°
2026-05-06 03:39 35.75589 140.77454 6113 ft 251 kts 297°
2026-05-06 03:39 35.76471 140.75602 6063 ft 251 kts 297°
2026-05-06 03:40 35.77348 140.73753 6025 ft 250 kts 297°
2026-05-06 03:40 35.78212 140.71935 6018 ft 239 kts 296°
2026-05-06 03:40 35.79028 140.70217 6013 ft 229 kts 296°
2026-05-06 03:40 35.79825 140.68535 6019 ft 225 kts 296°
2026-05-06 03:41 35.80610 140.66882 6022 ft 223 kts 296°
2026-05-06 03:41 35.81396 140.65225 6025 ft 225 kts 296°
2026-05-06 03:41 35.82188 140.63557 6025 ft 226 kts 296°
2026-05-06 03:41 35.82982 140.61887 6025 ft 226 kts 296°
2026-05-06 03:42 35.83748 140.60278 6020 ft 210 kts 297°
2026-05-06 03:42 35.84563 140.58813 6031 ft 205 kts 302°
2026-05-06 03:42 35.85445 140.57440 6001 ft 203 kts 305°
2026-05-06 03:42 35.86347 140.56119 6024 ft 205 kts 306°
2026-05-06 03:43 35.87272 140.54766 6033 ft 207 kts 306°
2026-05-06 03:43 35.88196 140.53392 5995 ft 208 kts 306°
2026-05-06 03:43 35.89109 140.52018 5877 ft 206 kts 306°
2026-05-06 03:43 35.90014 140.50650 5749 ft 205 kts 305°
2026-05-06 03:44 35.90924 140.49266 5626 ft 205 kts 305°
2026-05-06 03:44 35.91819 140.47902 5501 ft 204 kts 305°
2026-05-06 03:44 35.92714 140.46537 5374 ft 204 kts 305°
2026-05-06 03:44 35.93607 140.45177 5250 ft 204 kts 305°
2026-05-06 03:45 35.94496 140.43821 5123 ft 203 kts 305°
2026-05-06 03:45 35.95384 140.42468 4999 ft 202 kts 306°
2026-05-06 03:45 35.96428 140.41301 4881 ft 204 kts 320°
2026-05-06 03:45 35.97649 140.40390 4762 ft 206 kts 328°
2026-05-06 03:46 35.98935 140.39610 4639 ft 206 kts 332°
2026-05-06 03:46 36.00245 140.38899 4515 ft 206 kts 334°
2026-05-06 03:46 36.01557 140.38197 4390 ft 205 kts 333°
2026-05-06 03:46 36.02862 140.37477 4265 ft 205 kts 333°
2026-05-06 03:47 36.04158 140.36745 4142 ft 204 kts 332°
2026-05-06 03:47 36.05440 140.36011 4049 ft 202 kts 332°
2026-05-06 03:47 36.06719 140.35275 4003 ft 203 kts 332°
2026-05-06 03:47 36.07997 140.34537 3999 ft 203 kts 331°
2026-05-06 03:48 36.09275 140.33800 4005 ft 203 kts 331°
2026-05-06 03:48 36.10525 140.32996 3999 ft 200 kts 319°
2026-05-06 03:48 36.11293 140.31644 4001 ft 192 kts 286°
2026-05-06 03:48 36.11638 140.30050 4002 ft 192 kts 282°
2026-05-06 03:49 36.11838 140.28988 3991 ft 191 kts 276°
2026-05-06 03:49 36.11993 140.27376 4001 ft 188 kts 270°
2026-05-06 03:49 36.12035 140.25777 4001 ft 185 kts 265°
2026-05-06 03:49 36.12002 140.23694 3999 ft 181 kts 263°
2026-05-06 03:50 36.11974 140.22135 4004 ft 181 kts 263°
2026-05-06 03:50 36.11949 140.20572 4005 ft 182 kts 263°
2026-05-06 03:50 36.11753 140.19060 3993 ft 175 kts 239°
2026-05-06 03:50 36.10893 140.18093 4000 ft 170 kts 205°
2026-05-06 03:51 36.10128 140.17790 4002 ft 170 kts 195°
2026-05-06 03:51 36.08970 140.17587 4000 ft 167 kts 187°
2026-05-06 03:51 36.07618 140.17543 4004 ft 167 kts 182°
2026-05-06 03:51 36.06411 140.17575 4002 ft 167 kts 180°
2026-05-06 03:52 36.05220 140.17643 4000 ft 167 kts 179°
2026-05-06 03:52 36.04062 140.17769 4001 ft 167 kts 171°
2026-05-06 03:52 36.02968 140.18257 4019 ft 163 kts 160°
2026-05-06 03:52 36.02004 140.18898 3989 ft 155 kts 155°
2026-05-06 03:53 36.01094 140.19581 3992 ft 151 kts 154°
2026-05-06 03:53 36.00215 140.20249 3994 ft 150 kts 154°
2026-05-06 03:53 35.99310 140.20928 4003 ft 151 kts 154°
2026-05-06 03:53 35.98412 140.21594 4002 ft 151 kts 154°
2026-05-06 03:54 35.97508 140.22260 4000 ft 151 kts 154°
2026-05-06 03:54 35.96605 140.22920 4001 ft 151 kts 154°
2026-05-06 03:54 35.95703 140.23579 4002 ft 151 kts 154°
2026-05-06 03:54 35.94799 140.24238 3998 ft 151 kts 154°
2026-05-06 03:55 35.93893 140.24897 3827 ft 151 kts 154°
2026-05-06 03:55 35.92989 140.25555 3620 ft 150 kts 154°
2026-05-06 03:55 35.92088 140.26209 3431 ft 148 kts 155°
2026-05-06 03:55 35.91219 140.26840 3238 ft 143 kts 155°
2026-05-06 03:56 35.90386 140.27445 3037 ft 139 kts 156°
2026-05-06 03:56 35.89548 140.28053 2852 ft 140 kts 156°
2026-05-06 03:56 35.88708 140.28663 2672 ft 140 kts 156°
2026-05-06 03:56 35.87869 140.29271 2518 ft 140 kts 156°
2026-05-06 03:57 35.87038 140.29873 2308 ft 137 kts 155°
2026-05-06 03:57 35.86219 140.30467 2107 ft 133 kts 154°
2026-05-06 03:57 35.85421 140.31046 1934 ft 133 kts 154°
2026-05-06 03:57 35.84620 140.31626 1760 ft 134 kts 155°
2026-05-06 03:58 35.83829 140.32199 1585 ft 133 kts 155°
2026-05-06 03:58 35.83033 140.32776 1408 ft 133 kts 155°
2026-05-06 03:58 35.82240 140.33350 1232 ft 132 kts 155°
2026-05-06 03:58 35.81445 140.33926 1056 ft 132 kts 155°
2026-05-06 03:59 35.80657 140.34494 885 ft 131 kts 154°
2026-05-06 03:59 35.79864 140.35052 713 ft 131 kts 153°
2026-05-06 03:59 35.79084 140.35623 551 ft 130 kts 150°
2026-05-06 03:59 35.78307 140.36195 396 ft 130 kts 150°
2026-05-06 04:00 35.77534 140.36766 236 ft 130 kts 150°
2026-05-06 04:00 35.76767 140.37325 152 ft 123 kts 150°
2026-05-06 04:00 35.76157 140.37761 149 ft 69 kts 150°
2026-05-06 04:00 35.75932 140.37944 148 ft 24 kts 126°
2026-05-06 04:01 35.75841 140.38108 148 ft 22 kts 124°
2026-05-06 04:01 35.75841 140.38271 148 ft 16 kts 60°
2026-05-06 04:01 35.75927 140.38291 148 ft 13 kts 338°
2026-05-06 04:01 35.76008 140.38255 148 ft 12 kts 358°
2026-05-06 04:02 35.76079 140.38299 148 ft 13 kts 59°
2026-05-06 04:02 35.76118 140.38388 148 ft 7 kts 60°
2026-05-06 04:02 35.76128 140.38409 148 ft 0 kts 58°
2026-05-06 04:03 35.76131 140.38414 148 ft 0 kts 59°